Time,TemperatureF,DewpointF,PressureIn,WindDirection,WindDirectionDegrees,WindSpeedMPH,WindSpeedGustMPH,Humidity,HourlyPrecipIn,Conditions,Clouds,dailyrainin,SoftwareType,DateUTC
2013-06-01 00:00:00,78.2,71.5,30.05,NNE,30,6.0,9.0,80,0.00,,---,0.00,VWS V14.01,2013-06-01 04:00:00,
2013-06-01 00:01:00,78.1,71.4,30.05,East,89,2.0,10.0,80,0.00,,---,0.00,VWS V14.01,2013-06-01 04:01:00,
2013-06-01 00:02:00,78.1,71.4,30.05,SE,124,2.0,3.0,80,0.00,,---,0.00,VWS V14.01,2013-06-01 04:02:00,
2013-06-01 00:05:00,78.0,71.3,30.05,NNE,22,3.0,8.0,80,0.00,,---,0.00,VWS V14.01,2013-06-01 04:05:00,
2013-06-01 00:06:00,78.0,71.3,30.05,NNE,22,3.0,8.0,80,0.00,,---,0.00,VWS V14.01,2013-06-01 04:06:00,
2013-06-01 00:07:00,78.1,71.4,30.05,NE,55,3.0,4.0,80,0.00,,---,0.00,VWS V14.01,2013-06-01 04:07:00,
2013-06-01 00:08:00,78.0,71.3,30.05,East,94,3.0,8.0,80,0.00,,---,0.00,VWS V14.01,2013-06-01 04:08:00,
2013-06-01 00:10:00,77.9,71.2,30.05,ENE,71,2.0,8.0,80,0.00,,---,0.00,VWS V14.01,2013-06-01 04:10:00,
2013-06-01 00:12:00,77.8,71.1,30.05,ENE,69,3.0,7.0,80,0.00,,---,0.00,VWS V14.01,2013-06-01 04:12:00,
2013-06-01 00:13:00,77.9,71.2,30.05,ENE,64,4.0,7.0,80,0.00,,---,0.00,VWS V14.01,2013-06-01 04:13:00,
2013-06-01 00:14:00,77.8,71.5,30.05,NE,43,2.0,10.0,81,0.00,,---,0.00,VWS V14.01,2013-06-01 04:14:00,
2013-06-01 00:15:00,77.8,71.5,30.05,East,89,2.0,10.0,81,0.00,,---,0.00,VWS V14.01,2013-06-01 04:15:00,
2013-06-01 00:18:00,77.8,71.5,30.05,ENE,78,3.0,8.0,81,0.00,,---,0.00,VWS V14.01,2013-06-01 04:18:00,
2013-06-01 00:19:00,77.8,71.5,30.05,ENE,67,1.0,8.0,81,0.00,,---,0.00,VWS V14.01,2013-06-01 04:19:00,
2013-06-01 00:20:00,77.8,71.5,30.05,ENE,72,2.0,8.0,81,0.00,,---,0.00,VWS V14.01,2013-06-01 04:20:00,
2013-06-01 00:21:00,77.8,71.5,30.05,NE,44,3.0,8.0,81,0.00,,---,0.00,VWS V14.01,2013-06-01 04:21:00,
2013-06-01 00:24:00,77.7,71.4,30.05,East,98,2.0,8.0,81,0.00,,---,0.00,VWS V14.01,2013-06-01 04:24:00,
2013-06-01 00:25:00,77.7,71.4,30.04,NE,41,3.0,8.0,81,0.00,,---,0.00,VWS V14.01,2013-06-01 04:25:00,
2013-06-01 00:26:00,77.7,71.4,30.04,ESE,122,3.0,8.0,81,0.00,,---,0.00,VWS V14.01,2013-06-01 04:26:00,
2013-06-01 00:27:00,77.6,71.3,30.04,East,84,3.0,3.0,81,0.00,,---,0.00,VWS V14.01,2013-06-01 04:27:00,
2013-06-01 00:30:00,77.5,71.6,30.04,ESE,113,9.0,9.0,82,0.00,,---,0.00,VWS V14.01,2013-06-01 04:30:00,
2013-06-01 00:31:00,77.5,71.6,30.04,NE,50,5.0,9.0,82,0.00,,---,0.00,VWS V14.01,2013-06-01 04:31:00,
2013-06-01 00:32:00,77.5,71.6,30.04,ENE,62,3.0,9.0,82,0.00,,---,0.00,VWS V14.01,2013-06-01 04:32:00,
2013-06-01 00:33:00,77.5,71.6,30.04,East,83,6.0,9.0,82,0.00,,---,0.00,VWS V14.01,2013-06-01 04:33:00,
2013-06-01 00:35:00,77.4,71.5,30.04,NE,36,5.0,9.0,82,0.00,,---,0.00,VWS V14.01,2013-06-01 04:35:00,
2013-06-01 00:36:00,77.4,71.5,30.04,ENE,60,3.0,5.0,82,0.00,,---,0.00,VWS V14.01,2013-06-01 04:36:00,
2013-06-01 00:37:00,77.4,71.5,30.04,ENE,65,3.0,5.0,82,0.00,,---,0.00,VWS V14.01,2013-06-01 04:37:00,
2013-06-01 00:38:00,77.4,71.5,30.04,East,100,0.0,5.0,82,0.00,,---,0.00,VWS V14.01,2013-06-01 04:38:00,
2013-06-01 00:39:00,77.4,71.5,30.04,NNE,24,1.0,5.0,82,0.00,,---,0.00,VWS V14.01,2013-06-01 04:39:00,
2013-06-01 00:40:00,77.4,71.5,30.04,East,90,0.0,6.0,82,0.00,,---,0.00,VWS V14.01,2013-06-01 04:40:00,
2013-06-01 00:42:00,77.4,71.5,30.04,East,100,2.0,2.0,82,0.00,,---,0.00,VWS V14.01,2013-06-01 04:42:00,
2013-06-01 00:43:00,77.4,71.5,30.04,ESE,112,2.0,3.0,82,0.00,,---,0.00,VWS V14.01,2013-06-01 04:43:00,
2013-06-01 00:44:00,77.3,71.4,30.04,East,86,3.0,5.0,82,0.00,,---,0.00,VWS V14.01,2013-06-01 04:44:00,
2013-06-01 00:45:00,77.3,71.4,30.04,ESE,115,2.0,5.0,82,0.00,,---,0.00,VWS V14.01,2013-06-01 04:45:00,
2013-06-01 00:46:00,77.3,71.4,30.04,ESE,115,2.0,5.0,82,0.00,,---,0.00,VWS V14.01,2013-06-01 04:46:00,
2013-06-01 00:47:00,77.3,71.7,30.04,ESE,114,1.0,2.0,83,0.00,,---,0.00,VWS V14.01,2013-06-01 04:47:00,
2013-06-01 00:49:00,77.3,71.7,30.04,ESE,119,2.0,2.0,83,0.00,,---,0.00,VWS V14.01,2013-06-01 04:49:00,
2013-06-01 00:50:00,77.3,71.7,30.04,ESE,119,1.0,2.0,83,0.00,,---,0.00,VWS V14.01,2013-06-01 04:50:00,
2013-06-01 00:51:00,77.3,71.7,30.04,ESE,119,1.0,2.0,83,0.00,,---,0.00,VWS V14.01,2013-06-01 04:51:00,
2013-06-01 00:55:00,77.1,71.5,30.04,East,98,1.0,5.0,83,0.00,,---,0.00,VWS V14.01,2013-06-01 04:55:00,
2013-06-01 00:57:00,77.1,71.5,30.04,NE,53,2.0,3.0,83,0.00,,---,0.00,VWS V14.01,2013-06-01 04:57:00,
2013-06-01 01:00:00,77.1,71.5,30.04,East,98,3.0,6.0,83,0.00,,---,0.00,VWS V14.01,2013-06-01 05:00:00,
2013-06-01 01:01:00,77.1,71.5,30.04,East,82,1.0,6.0,83,0.00,,---,0.00,VWS V14.01,2013-06-01 05:01:00,
2013-06-01 01:03:00,77.1,71.5,30.04,ENE,64,1.0,5.0,83,0.00,,---,0.00,VWS V14.01,2013-06-01 05:03:00,
2013-06-01 01:05:00,77.0,71.4,30.04,East,80,1.0,8.0,83,0.00,,---,0.00,VWS V14.01,2013-06-01 05:05:00,
2013-06-01 01:06:00,77.0,71.4,30.04,East,84,3.0,3.0,83,0.00,,---,0.00,VWS V14.01,2013-06-01 05:06:00,
2013-06-01 01:07:00,77.0,71.4,30.04,East,80,2.0,5.0,83,0.00,,---,0.00,VWS V14.01,2013-06-01 05:07:00,
2013-06-01 01:09:00,77.0,71.4,30.04,ENE,63,1.0,5.0,83,0.00,,---,0.00,VWS V14.01,2013-06-01 05:09:00,
2013-06-01 01:10:00,77.0,71.8,30.04,ESE,123,3.0,5.0,84,0.00,,---,0.00,VWS V14.01,2013-06-01 05:10:00,
2013-06-01 01:12:00,76.9,71.7,30.04,ENE,57,3.0,3.0,84,0.00,,---,0.00,VWS V14.01,2013-06-01 05:12:00,
2013-06-01 01:13:00,76.9,71.7,30.04,ESE,116,2.0,3.0,84,0.00,,---,0.00,VWS V14.01,2013-06-01 05:13:00,
2013-06-01 01:14:00,76.9,71.7,30.04,East,86,0.0,3.0,84,0.00,,---,0.00,VWS V14.01,2013-06-01 05:14:00,
2013-06-01 01:15:00,76.9,71.7,30.04,East,86,2.0,3.0,84,0.00,,---,0.00,VWS V14.01,2013-06-01 05:15:00,
2013-06-01 01:16:00,76.9,71.7,30.03,SE,130,3.0,3.0,84,0.00,,---,0.00,VWS V14.01,2013-06-01 05:16:00,
2013-06-01 01:17:00,76.9,71.7,30.03,SE,130,0.0,3.0,84,0.00,,---,0.00,VWS V14.01,2013-06-01 05:17:00,
2013-06-01 01:19:00,76.9,71.7,30.03,ENE,57,4.0,4.0,84,0.00,,---,0.00,VWS V14.01,2013-06-01 05:19:00,
2013-06-01 01:20:00,76.9,71.7,30.03,NE,42,1.0,5.0,84,0.00,,---,0.00,VWS V14.01,2013-06-01 05:20:00,
2013-06-01 01:22:00,76.8,71.6,30.03,NNE,26,3.0,4.0,84,0.00,,---,0.00,VWS V14.01,2013-06-01 05:22:00,
2013-06-01 01:25:00,76.8,71.6,30.03,NE,51,5.0,5.0,84,0.00,,---,0.00,VWS V14.01,2013-06-01 05:25:00,
2013-06-01 01:26:00,76.8,71.6,30.03,ENE,64,3.0,5.0,84,0.00,,---,0.00,VWS V14.01,2013-06-01 05:26:00,
2013-06-01 01:28:00,76.8,71.6,30.03,NE,44,2.0,5.0,84,0.00,,---,0.00,VWS V14.01,2013-06-01 05:28:00,
2013-06-01 01:29:00,76.8,71.6,30.03,ESE,106,0.0,5.0,84,0.00,,---,0.00,VWS V14.01,2013-06-01 05:29:00,
2013-06-01 01:30:00,76.7,71.5,30.03,ENE,74,1.0,5.0,84,0.00,,---,0.00,VWS V14.01,2013-06-01 05:30:00,
2013-06-01 01:32:00,76.7,71.5,30.03,ENE,59,2.0,2.0,84,0.00,,---,0.00,VWS V14.01,2013-06-01 05:32:00,
2013-06-01 01:35:00,76.7,71.5,30.03,ENE,67,2.0,6.0,84,0.00,,---,0.00,VWS V14.01,2013-06-01 05:35:00,
2013-06-01 01:36:00,76.7,71.5,30.03,East,93,2.0,6.0,84,0.00,,---,0.00,VWS V14.01,2013-06-01 05:36:00,
2013-06-01 01:37:00,76.7,71.9,30.03,East,96,5.0,5.0,85,0.00,,---,0.00,VWS V14.01,2013-06-01 05:37:00,
2013-06-01 01:38:00,76.7,71.5,30.03,SE,136,3.0,5.0,84,0.00,,---,0.00,VWS V14.01,2013-06-01 05:38:00,
2013-06-01 01:40:00,76.6,71.4,30.02,East,96,2.0,9.0,84,0.00,,---,0.00,VWS V14.01,2013-06-01 05:40:00,
2013-06-01 01:41:00,76.6,71.4,30.02,East,96,1.0,9.0,84,0.00,,---,0.00,VWS V14.01,2013-06-01 05:41:00,
2013-06-01 01:43:00,76.7,71.5,30.02,East,96,2.0,2.0,84,0.00,,---,0.00,VWS V14.01,2013-06-01 05:43:00,
2013-06-01 01:44:00,76.7,71.5,30.02,East,94,2.0,2.0,84,0.00,,---,0.00,VWS V14.01,2013-06-01 05:44:00,
2013-06-01 01:45:00,76.7,71.5,30.02,East,90,3.0,3.0,84,0.00,,---,0.00,VWS V14.01,2013-06-01 05:45:00,
2013-06-01 01:46:00,76.7,71.5,30.02,East,82,1.0,3.0,84,0.00,,---,0.00,VWS V14.01,2013-06-01 05:46:00,
2013-06-01 01:47:00,76.6,71.8,30.02,ESE,112,1.0,4.0,85,0.00,,---,0.00,VWS V14.01,2013-06-01 05:47:00,
2013-06-01 01:48:00,76.6,71.8,30.02,SE,128,0.0,4.0,85,0.00,,---,0.00,VWS V14.01,2013-06-01 05:48:00,
2013-06-01 01:49:00,76.6,71.8,30.02,East,80,1.0,5.0,85,0.00,,---,0.00,VWS V14.01,2013-06-01 05:49:00,
2013-06-01 01:50:00,76.6,71.8,30.02,NE,41,2.0,6.0,85,0.00,,---,0.00,VWS V14.01,2013-06-01 05:50:00,
2013-06-01 01:51:00,76.6,71.8,30.02,NE,39,2.0,6.0,85,0.00,,---,0.00,VWS V14.01,2013-06-01 05:51:00,
2013-06-01 01:54:00,76.5,71.7,30.02,East,80,2.0,7.0,85,0.00,,---,0.00,VWS V14.01,2013-06-01 05:54:00,
2013-06-01 01:55:00,76.4,71.6,30.02,NE,52,1.0,7.0,85,0.00,,---,0.00,VWS V14.01,2013-06-01 05:55:00,
2013-06-01 01:56:00,76.4,71.6,30.02,NE,42,2.0,7.0,85,0.00,,---,0.00,VWS V14.01,2013-06-01 05:56:00,
2013-06-01 01:57:00,76.4,71.6,30.02,ENE,65,1.0,2.0,85,0.00,,---,0.00,VWS V14.01,2013-06-01 05:57:00,
2013-06-01 02:00:00,76.3,71.5,30.02,East,98,1.0,4.0,85,0.00,,---,0.00,VWS V14.01,2013-06-01 06:00:00,
2013-06-01 02:01:00,76.3,71.5,30.02,East,98,1.0,1.0,85,0.00,,---,0.00,VWS V14.01,2013-06-01 06:01:00,
2013-06-01 02:02:00,76.4,71.6,30.02,SE,129,4.0,4.0,85,0.00,,---,0.00,VWS V14.01,2013-06-01 06:02:00,
2013-06-01 02:03:00,76.3,71.5,30.02,SE,126,0.0,4.0,85,0.00,,---,0.00,VWS V14.01,2013-06-01 06:03:00,
2013-06-01 02:05:00,76.3,71.5,30.02,ESE,117,0.0,4.0,85,0.00,,---,0.00,VWS V14.01,2013-06-01 06:05:00,
2013-06-01 02:06:00,76.3,71.5,30.02,ESE,117,0.0,4.0,85,0.00,,---,0.00,VWS V14.01,2013-06-01 06:06:00,
2013-06-01 02:08:00,76.3,71.5,30.01,NE,40,0.0,3.0,85,0.00,,---,0.00,VWS V14.01,2013-06-01 06:08:00,
2013-06-01 02:09:00,76.3,71.5,30.01,ESE,121,3.0,3.0,85,0.00,,---,0.00,VWS V14.01,2013-06-01 06:09:00,
2013-06-01 02:10:00,76.2,71.4,30.01,NE,50,1.0,5.0,85,0.00,,---,0.00,VWS V14.01,2013-06-01 06:10:00,
2013-06-01 02:12:00,76.2,71.4,30.01,East,79,1.0,6.0,85,0.00,,---,0.00,VWS V14.01,2013-06-01 06:12:00,
2013-06-01 02:14:00,76.2,71.4,30.01,ENE,66,0.0,6.0,85,0.00,,---,0.00,VWS V14.01,2013-06-01 06:14:00,
2013-06-01 02:15:00,76.2,71.4,30.01,ESE,107,3.0,6.0,85,0.00,,---,0.00,VWS V14.01,2013-06-01 06:15:00,
2013-06-01 02:18:00,76.2,71.4,30.01,ENE,74,2.0,5.0,85,0.00,,---,0.00,VWS V14.01,2013-06-01 06:18:00,
2013-06-01 02:19:00,76.1,71.3,30.01,ESE,109,1.0,5.0,85,0.00,,---,0.00,VWS V14.01,2013-06-01 06:19:00,
2013-06-01 02:20:00,76.1,71.3,30.01,ESE,103,1.0,5.0,85,0.00,,---,0.00,VWS V14.01,2013-06-01 06:20:00,
2013-06-01 02:21:00,76.1,71.3,30.01,SE,128,3.0,5.0,85,0.00,,---,0.00,VWS V14.01,2013-06-01 06:21:00,
2013-06-01 02:23:00,76.1,71.6,30.01,East,96,2.0,3.0,86,0.00,,---,0.00,VWS V14.01,2013-06-01 06:23:00,
2013-06-01 02:25:00,76.1,71.6,30.01,NE,39,1.0,3.0,86,0.00,,---,0.00,VWS V14.01,2013-06-01 06:25:00,
2013-06-01 02:26:00,76.1,71.6,30.01,NE,53,2.0,2.0,86,0.00,,---,0.00,VWS V14.01,2013-06-01 06:26:00,
2013-06-01 02:29:00,76.1,71.6,30.01,ENE,71,1.0,5.0,86,0.00,,---,0.00,VWS V14.01,2013-06-01 06:29:00,
2013-06-01 02:30:00,76.1,71.6,30.00,ENE,75,3.0,5.0,86,0.00,,---,0.00,VWS V14.01,2013-06-01 06:30:00,
2013-06-01 02:31:00,76.0,71.5,30.00,ENE,67,1.0,5.0,86,0.00,,---,0.00,VWS V14.01,2013-06-01 06:31:00,
2013-06-01 02:32:00,76.1,71.6,30.00,East,84,2.0,4.0,86,0.00,,---,0.00,VWS V14.01,2013-06-01 06:32:00,
2013-06-01 02:33:00,76.0,71.5,30.00,SE,129,1.0,4.0,86,0.00,,---,0.00,VWS V14.01,2013-06-01 06:33:00,
2013-06-01 02:35:00,76.0,71.5,30.00,ENE,74,2.0,5.0,86,0.00,,---,0.00,VWS V14.01,2013-06-01 06:35:00,
2013-06-01 02:36:00,76.0,71.5,30.00,ENE,74,2.0,5.0,86,0.00,,---,0.00,VWS V14.01,2013-06-01 06:36:00,
2013-06-01 02:37:00,76.0,71.5,30.00,ENE,57,2.0,2.0,86,0.00,,---,0.00,VWS V14.01,2013-06-01 06:37:00,
2013-06-01 02:38:00,76.0,71.5,30.00,NE,54,3.0,5.0,86,0.00,,---,0.00,VWS V14.01,2013-06-01 06:38:00,
2013-06-01 02:39:00,76.0,71.5,30.00,South,170,2.0,5.0,86,0.00,,---,0.00,VWS V14.01,2013-06-01 06:39:00,
2013-06-01 02:40:00,76.0,71.5,30.00,ESE,105,3.0,6.0,86,0.00,,---,0.00,VWS V14.01,2013-06-01 06:40:00,
2013-06-01 02:41:00,76.0,71.5,30.00,ESE,105,3.0,6.0,86,0.00,,---,0.00,VWS V14.01,2013-06-01 06:41:00,
2013-06-01 02:42:00,76.0,71.5,30.00,ENE,77,2.0,3.0,86,0.00,,---,0.00,VWS V14.01,2013-06-01 06:42:00,
2013-06-01 02:44:00,76.0,71.5,30.00,ESE,114,1.0,4.0,86,0.00,,---,0.00,VWS V14.01,2013-06-01 06:44:00,
2013-06-01 02:45:00,76.0,71.5,30.00,East,84,3.0,4.0,86,0.00,,---,0.00,VWS V14.01,2013-06-01 06:45:00,
2013-06-01 02:46:00,76.0,71.5,30.00,East,84,3.0,4.0,86,0.00,,---,0.00,VWS V14.01,2013-06-01 06:46:00,
2013-06-01 02:47:00,76.0,71.5,30.00,East,82,2.0,3.0,86,0.00,,---,0.00,VWS V14.01,2013-06-01 06:47:00,
2013-06-01 02:48:00,76.0,71.5,30.00,East,92,3.0,3.0,86,0.00,,---,0.00,VWS V14.01,2013-06-01 06:48:00,
2013-06-01 02:50:00,76.0,71.5,30.00,East,79,0.0,4.0,86,0.00,,---,0.00,VWS V14.01,2013-06-01 06:50:00,
2013-06-01 02:52:00,76.0,71.5,30.00,East,88,2.0,2.0,86,0.00,,---,0.00,VWS V14.01,2013-06-01 06:52:00,
2013-06-01 02:53:00,76.0,71.5,30.00,ESE,107,1.0,3.0,86,0.00,,---,0.00,VWS V14.01,2013-06-01 06:53:00,
2013-06-01 02:54:00,76.0,71.5,30.00,ENE,76,2.0,5.0,86,0.00,,---,0.00,VWS V14.01,2013-06-01 06:54:00,
2013-06-01 02:55:00,76.0,71.5,29.99,ENE,61,2.0,5.0,86,0.00,,---,0.00,VWS V14.01,2013-06-01 06:55:00,
2013-06-01 03:00:00,75.9,71.4,29.99,NW,315,1.0,4.0,86,0.00,,---,0.00,VWS V14.01,2013-06-01 07:00:00,
2013-06-01 03:01:00,75.9,71.4,29.99,NE,41,1.0,4.0,86,0.00,,---,0.00,VWS V14.01,2013-06-01 07:01:00,
2013-06-01 03:02:00,75.9,71.4,29.99,NE,47,2.0,2.0,86,0.00,,---,0.00,VWS V14.01,2013-06-01 07:02:00,
2013-06-01 03:05:00,75.9,71.8,29.99,ENE,76,2.0,2.0,87,0.00,,---,0.00,VWS V14.01,2013-06-01 07:05:00,
2013-06-01 03:06:00,75.9,71.8,30.00,ENE,73,1.0,2.0,87,0.00,,---,0.00,VWS V14.01,2013-06-01 07:06:00,
2013-06-01 03:07:00,75.9,71.8,29.99,ENE,72,1.0,3.0,87,0.00,,---,0.00,VWS V14.01,2013-06-01 07:07:00,
2013-06-01 03:10:00,75.9,71.8,29.99,East,80,1.0,3.0,87,0.00,,---,0.00,VWS V14.01,2013-06-01 07:10:00,
2013-06-01 03:11:00,75.9,71.8,30.00,East,92,1.0,2.0,87,0.00,,---,0.00,VWS V14.01,2013-06-01 07:11:00,
2013-06-01 03:15:00,75.9,71.8,30.00,East,100,3.0,9.0,87,0.00,,---,0.00,VWS V14.01,2013-06-01 07:15:00,
2013-06-01 03:16:00,75.9,71.8,30.00,NNW,343,2.0,2.0,87,0.00,,---,0.00,VWS V14.01,2013-06-01 07:16:00,
2013-06-01 03:17:00,75.9,71.8,30.00,NNE,23,1.0,2.0,87,0.00,,---,0.00,VWS V14.01,2013-06-01 07:17:00,
2013-06-01 03:18:00,76.0,71.9,30.00,ENE,65,1.0,2.0,87,0.00,,---,0.00,VWS V14.01,2013-06-01 07:18:00,
2013-06-01 03:20:00,76.0,71.9,29.99,NE,56,1.0,6.0,87,0.00,,---,0.00,VWS V14.01,2013-06-01 07:20:00,
2013-06-01 03:21:00,76.0,71.9,29.99,NE,56,2.0,2.0,87,0.00,,---,0.00,VWS V14.01,2013-06-01 07:21:00,
2013-06-01 03:22:00,76.0,71.9,29.99,ENE,65,3.0,3.0,87,0.00,,---,0.00,VWS V14.01,2013-06-01 07:22:00,
2013-06-01 03:23:00,76.0,71.9,29.99,NE,42,2.0,3.0,87,0.00,,---,0.00,VWS V14.01,2013-06-01 07:23:00,
2013-06-01 03:25:00,75.9,71.8,29.99,East,96,1.0,4.0,87,0.00,,---,0.00,VWS V14.01,2013-06-01 07:25:00,
2013-06-01 03:27:00,75.9,71.8,29.99,East,84,2.0,3.0,87,0.00,,---,0.00,VWS V14.01,2013-06-01 07:27:00,
2013-06-01 03:28:00,75.9,71.8,29.99,ENE,78,1.0,3.0,87,0.00,,---,0.00,VWS V14.01,2013-06-01 07:28:00,
2013-06-01 03:30:00,75.9,71.8,29.99,East,92,3.0,5.0,87,0.00,,---,0.00,VWS V14.01,2013-06-01 07:30:00,
2013-06-01 03:31:00,75.9,71.8,29.99,East,92,2.0,3.0,87,0.00,,---,0.00,VWS V14.01,2013-06-01 07:31:00,
2013-06-01 03:33:00,75.9,71.8,29.99,East,87,1.0,3.0,87,0.00,,---,0.00,VWS V14.01,2013-06-01 07:33:00,
2013-06-01 03:34:00,75.9,71.8,29.99,NE,46,2.0,4.0,87,0.00,,---,0.00,VWS V14.01,2013-06-01 07:34:00,
2013-06-01 03:35:00,75.9,71.8,29.99,ENE,75,2.0,5.0,87,0.00,,---,0.00,VWS V14.01,2013-06-01 07:35:00,
2013-06-01 03:37:00,75.9,71.8,29.99,South,169,2.0,7.0,87,0.00,,---,0.00,VWS V14.01,2013-06-01 07:37:00,
2013-06-01 03:38:00,75.9,71.8,29.99,NNE,31,1.0,7.0,87,0.00,,---,0.00,VWS V14.01,2013-06-01 07:38:00,
2013-06-01 03:39:00,75.9,71.8,29.99,East,85,5.0,7.0,87,0.00,,---,0.00,VWS V14.01,2013-06-01 07:39:00,
2013-06-01 03:40:00,75.9,71.8,29.99,East,91,1.0,7.0,87,0.00,,---,0.00,VWS V14.01,2013-06-01 07:40:00,
2013-06-01 03:42:00,75.9,71.8,29.99,East,84,1.0,6.0,87,0.00,,---,0.00,VWS V14.01,2013-06-01 07:42:00,
2013-06-01 03:43:00,75.9,71.8,29.99,East,94,2.0,6.0,87,0.00,,---,0.00,VWS V14.01,2013-06-01 07:43:00,
2013-06-01 03:44:00,75.9,71.8,29.99,ESE,122,2.0,6.0,87,0.00,,---,0.00,VWS V14.01,2013-06-01 07:44:00,
2013-06-01 03:45:00,75.9,71.8,29.99,ESE,122,1.0,6.0,87,0.00,,---,0.00,VWS V14.01,2013-06-01 07:45:00,
2013-06-01 03:46:00,75.9,71.8,29.99,East,92,2.0,6.0,87,0.00,,---,0.00,VWS V14.01,2013-06-01 07:46:00,
2013-06-01 03:48:00,75.9,71.8,29.99,East,98,1.0,5.0,87,0.00,,---,0.00,VWS V14.01,2013-06-01 07:48:00,
2013-06-01 03:50:00,75.9,71.8,29.99,ENE,65,3.0,5.0,87,0.00,,---,0.00,VWS V14.01,2013-06-01 07:50:00,
2013-06-01 03:51:00,75.9,71.8,29.99,ENE,57,1.0,5.0,87,0.00,,---,0.00,VWS V14.01,2013-06-01 07:51:00,
2013-06-01 03:54:00,75.9,71.8,29.99,ESE,116,4.0,4.0,87,0.00,,---,0.00,VWS V14.01,2013-06-01 07:54:00,
2013-06-01 03:55:00,75.9,71.8,29.99,NE,42,2.0,5.0,87,0.00,,---,0.00,VWS V14.01,2013-06-01 07:55:00,
2013-06-01 03:56:00,75.9,71.8,29.99,NE,42,0.0,2.0,87,0.00,,---,0.00,VWS V14.01,2013-06-01 07:56:00,
2013-06-01 03:57:00,75.9,71.8,29.99,ESE,115,3.0,3.0,87,0.00,,---,0.00,VWS V14.01,2013-06-01 07:57:00,
2013-06-01 03:59:00,76.0,71.9,29.99,NNE,20,3.0,5.0,87,0.00,,---,0.00,VWS V14.01,2013-06-01 07:59:00,
2013-06-01 04:00:00,76.0,71.9,29.99,NNE,15,3.0,5.0,87,0.00,,---,0.00,VWS V14.01,2013-06-01 08:00:00,
2013-06-01 04:01:00,76.0,71.9,29.99,ENE,65,2.0,5.0,87,0.00,,---,0.00,VWS V14.01,2013-06-01 08:01:00,
2013-06-01 04:02:00,76.0,71.9,29.99,East,90,2.0,3.0,87,0.00,,---,0.00,VWS V14.01,2013-06-01 08:02:00,
2013-06-01 04:05:00,76.0,71.9,29.99,East,88,2.0,7.0,87,0.00,,---,0.00,VWS V14.01,2013-06-01 08:05:00,
2013-06-01 04:06:00,76.0,71.9,29.99,East,88,1.0,7.0,87,0.00,,---,0.00,VWS V14.01,2013-06-01 08:06:00,
2013-06-01 04:09:00,75.9,71.8,29.99,ENE,67,2.0,3.0,87,0.00,,---,0.00,VWS V14.01,2013-06-01 08:09:00,
2013-06-01 04:10:00,76.0,71.9,29.99,NE,45,4.0,5.0,87,0.00,,---,0.00,VWS V14.01,2013-06-01 08:10:00,
2013-06-01 04:11:00,75.9,71.8,29.99,NNW,348,2.0,3.0,87,0.00,,---,0.00,VWS V14.01,2013-06-01 08:11:00,
2013-06-01 04:12:00,76.0,71.9,29.99,NE,54,4.0,5.0,87,0.00,,---,0.00,VWS V14.01,2013-06-01 08:12:00,
2013-06-01 04:14:00,75.9,71.8,29.99,ENE,66,1.0,5.0,87,0.00,,---,0.00,VWS V14.01,2013-06-01 08:14:00,
2013-06-01 04:15:00,75.9,71.8,29.98,East,91,0.0,5.0,87,0.00,,---,0.00,VWS V14.01,2013-06-01 08:15:00,
2013-06-01 04:16:00,76.0,71.9,29.98,East,91,0.0,5.0,87,0.00,,---,0.00,VWS V14.01,2013-06-01 08:16:00,
2013-06-01 04:17:00,75.9,71.8,29.98,SE,130,2.0,3.0,87,0.00,,---,0.00,VWS V14.01,2013-06-01 08:17:00,
2013-06-01 04:19:00,75.9,71.8,29.98,East,92,1.0,3.0,87,0.00,,---,0.00,VWS V14.01,2013-06-01 08:19:00,
2013-06-01 04:20:00,75.9,71.8,29.98,East,99,1.0,3.0,87,0.00,,---,0.00,VWS V14.01,2013-06-01 08:20:00,
2013-06-01 04:21:00,75.9,71.8,29.98,ESE,102,2.0,5.0,87,0.00,,---,0.00,VWS V14.01,2013-06-01 08:21:00,
2013-06-01 04:22:00,75.9,71.8,29.98,East,95,2.0,2.0,87,0.00,,---,0.00,VWS V14.01,2013-06-01 08:22:00,
2013-06-01 04:25:00,75.9,71.8,29.98,SE,138,1.0,6.0,87,0.00,,---,0.00,VWS V14.01,2013-06-01 08:25:00,
2013-06-01 04:26:00,75.9,71.8,29.98,SE,136,1.0,6.0,87,0.00,,---,0.00,VWS V14.01,2013-06-01 08:26:00,
2013-06-01 04:27:00,75.9,71.8,29.98,East,99,2.0,5.0,87,0.00,,---,0.00,VWS V14.01,2013-06-01 08:27:00,
2013-06-01 04:29:00,75.8,71.7,29.98,ENE,69,1.0,5.0,87,0.00,,---,0.00,VWS V14.01,2013-06-01 08:29:00,
2013-06-01 04:30:00,75.8,71.7,29.98,East,95,2.0,7.0,87,0.00,,---,0.00,VWS V14.01,2013-06-01 08:30:00,
2013-06-01 04:31:00,75.8,71.7,29.98,East,98,2.0,2.0,87,0.00,,---,0.00,VWS V14.01,2013-06-01 08:31:00,
2013-06-01 04:33:00,75.7,71.6,29.98,NNE,21,1.0,3.0,87,0.00,,---,0.00,VWS V14.01,2013-06-01 08:33:00,
2013-06-01 04:35:00,75.7,71.6,29.98,NNE,32,2.0,4.0,87,0.00,,---,0.00,VWS V14.01,2013-06-01 08:35:00,
2013-06-01 04:37:00,75.7,71.6,29.98,East,91,3.0,3.0,87,0.00,,---,0.00,VWS V14.01,2013-06-01 08:37:00,
2013-06-01 04:38:00,75.6,71.5,29.98,East,81,1.0,5.0,87,0.00,,---,0.00,VWS V14.01,2013-06-01 08:38:00,
2013-06-01 04:40:00,75.6,71.5,29.98,East,80,2.0,5.0,87,0.00,,---,0.00,VWS V14.01,2013-06-01 08:40:00,
2013-06-01 04:41:00,75.6,71.5,29.98,ESE,115,1.0,5.0,87,0.00,,---,0.00,VWS V14.01,2013-06-01 08:41:00,
2013-06-01 04:42:00,75.6,71.8,29.98,East,94,1.0,5.0,88,0.00,,---,0.00,VWS V14.01,2013-06-01 08:42:00,
2013-06-01 04:44:00,75.6,71.8,29.98,East,90,2.0,5.0,88,0.00,,---,0.00,VWS V14.01,2013-06-01 08:44:00,
2013-06-01 04:45:00,75.6,71.8,29.98,NE,49,2.0,5.0,88,0.00,,---,0.00,VWS V14.01,2013-06-01 08:45:00,
2013-06-01 04:46:00,75.6,71.8,29.98,ENE,65,1.0,2.0,88,0.00,,---,0.00,VWS V14.01,2013-06-01 08:46:00,
2013-06-01 04:47:00,75.6,71.8,29.98,East,100,2.0,2.0,88,0.00,,---,0.00,VWS V14.01,2013-06-01 08:47:00,
2013-06-01 04:48:00,75.6,71.8,29.98,East,88,5.0,5.0,88,0.00,,---,0.00,VWS V14.01,2013-06-01 08:48:00,
2013-06-01 04:49:00,75.6,71.8,29.98,NE,48,2.0,5.0,88,0.00,,---,0.00,VWS V14.01,2013-06-01 08:49:00,
2013-06-01 04:50:00,75.6,71.8,29.98,East,90,2.0,6.0,88,0.00,,---,0.00,VWS V14.01,2013-06-01 08:50:00,
2013-06-01 04:52:00,75.6,71.8,29.98,East,86,2.0,3.0,88,0.00,,---,0.00,VWS V14.01,2013-06-01 08:52:00,
2013-06-01 04:54:00,75.6,71.8,29.98,NE,56,2.0,3.0,88,0.00,,---,0.00,VWS V14.01,2013-06-01 08:54:00,
2013-06-01 04:55:00,75.6,71.8,29.98,NE,56,1.0,3.0,88,0.00,,---,0.00,VWS V14.01,2013-06-01 08:55:00,
2013-06-01 04:58:00,75.6,71.8,29.98,ENE,70,3.0,3.0,88,0.00,,---,0.00,VWS V14.01,2013-06-01 08:58:00,
2013-06-01 05:00:00,75.6,71.8,29.98,East,100,1.0,3.0,88,0.00,,---,0.00,VWS V14.01,2013-06-01 09:00:00,
2013-06-01 05:01:00,75.6,71.8,29.98,NE,49,4.0,5.0,88,0.00,,---,0.00,VWS V14.01,2013-06-01 09:01:00,
2013-06-01 05:02:00,75.6,71.8,29.98,East,80,0.0,2.0,88,0.00,,---,0.00,VWS V14.01,2013-06-01 09:02:00,
2013-06-01 05:05:00,75.5,71.7,29.98,East,92,1.0,3.0,88,0.00,,---,0.00,VWS V14.01,2013-06-01 09:05:00,
2013-06-01 05:06:00,75.5,71.7,29.99,East,92,1.0,1.0,88,0.00,,---,0.00,VWS V14.01,2013-06-01 09:06:00,
2013-06-01 05:07:00,75.6,71.8,29.99,SE,124,2.0,2.0,88,0.00,,---,0.00,VWS V14.01,2013-06-01 09:07:00,
2013-06-01 05:10:00,75.5,71.7,29.99,East,83,2.0,3.0,88,0.00,,---,0.00,VWS V14.01,2013-06-01 09:10:00,
2013-06-01 05:11:00,75.5,71.7,29.99,East,82,2.0,3.0,88,0.00,,---,0.00,VWS V14.01,2013-06-01 09:11:00,
2013-06-01 05:12:00,75.5,71.7,29.99,East,90,1.0,3.0,88,0.00,,---,0.00,VWS V14.01,2013-06-01 09:12:00,
2013-06-01 05:14:00,75.5,71.7,29.99,East,96,2.0,3.0,88,0.00,,---,0.00,VWS V14.01,2013-06-01 09:14:00,
2013-06-01 05:15:00,75.5,71.7,29.99,NE,55,2.0,3.0,88,0.00,,---,0.00,VWS V14.01,2013-06-01 09:15:00,
2013-06-01 05:17:00,75.5,71.7,29.99,NE,55,1.0,2.0,88,0.00,,---,0.00,VWS V14.01,2013-06-01 09:17:00,
2013-06-01 05:18:00,75.5,71.7,29.99,NE,55,1.0,2.0,88,0.00,,---,0.00,VWS V14.01,2013-06-01 09:18:00,
2013-06-01 05:20:00,75.4,71.6,29.99,East,101,3.0,3.0,88,0.00,,---,0.00,VWS V14.01,2013-06-01 09:20:00,
2013-06-01 05:22:00,75.4,71.6,29.99,East,101,2.0,2.0,88,0.00,,---,0.00,VWS V14.01,2013-06-01 09:22:00,
2013-06-01 05:23:00,75.4,71.6,29.99,NE,51,1.0,2.0,88,0.00,,---,0.00,VWS V14.01,2013-06-01 09:23:00,
2013-06-01 05:25:00,75.4,71.6,29.99,East,85,1.0,2.0,88,0.00,,---,0.00,VWS V14.01,2013-06-01 09:25:00,
2013-06-01 05:28:00,75.4,71.6,29.99,NE,53,3.0,3.0,88,0.00,,---,0.00,VWS V14.01,2013-06-01 09:28:00,
2013-06-01 05:30:00,75.3,71.8,29.99,East,86,1.0,3.0,89,0.00,,---,0.00,VWS V14.01,2013-06-01 09:30:00,
2013-06-01 05:31:00,75.3,71.8,29.98,NE,53,0.0,3.0,89,0.00,,---,0.00,VWS V14.01,2013-06-01 09:31:00,
2013-06-01 05:34:00,75.4,71.9,29.99,ESE,107,2.0,3.0,89,0.00,,---,0.00,VWS V14.01,2013-06-01 09:34:00,
2013-06-01 05:35:00,75.4,71.9,29.99,ESE,107,2.0,4.0,89,0.00,,---,0.00,VWS V14.01,2013-06-01 09:35:00,
2013-06-01 05:36:00,75.4,71.9,29.99,NE,50,1.0,4.0,89,0.00,,---,0.00,VWS V14.01,2013-06-01 09:36:00,
2013-06-01 05:37:00,75.4,71.9,29.99,NE,49,1.0,2.0,89,0.00,,---,0.00,VWS V14.01,2013-06-01 09:37:00,
2013-06-01 05:40:00,75.4,71.9,29.99,ESE,109,2.0,2.0,89,0.00,,---,0.00,VWS V14.01,2013-06-01 09:40:00,
2013-06-01 05:41:00,75.3,71.8,29.99,East,80,2.0,2.0,89,0.00,,---,0.00,VWS V14.01,2013-06-01 09:41:00,
2013-06-01 05:43:00,75.4,71.9,29.99,ENE,75,7.0,7.0,89,0.00,,---,0.00,VWS V14.01,2013-06-01 09:43:00,
2013-06-01 05:45:00,75.3,71.8,29.99,ENE,65,2.0,7.0,89,0.00,,---,0.00,VWS V14.01,2013-06-01 09:45:00,
2013-06-01 05:46:00,75.3,71.8,29.99,ENE,65,2.0,7.0,89,0.00,,---,0.00,VWS V14.01,2013-06-01 09:46:00,
2013-06-01 05:47:00,75.3,71.8,29.99,ENE,65,1.0,2.0,89,0.00,,---,0.00,VWS V14.01,2013-06-01 09:47:00,
2013-06-01 05:48:00,75.3,71.8,29.99,ENE,78,3.0,3.0,89,0.00,,---,0.00,VWS V14.01,2013-06-01 09:48:00,
2013-06-01 05:50:00,75.4,71.9,29.99,East,87,1.0,3.0,89,0.00,,---,0.00,VWS V14.01,2013-06-01 09:50:00,
2013-06-01 05:52:00,75.3,71.8,29.99,ENE,71,2.0,5.0,89,0.00,,---,0.00,VWS V14.01,2013-06-01 09:52:00,
2013-06-01 05:53:00,75.3,71.8,29.99,NE,36,2.0,5.0,89,0.00,,---,0.00,VWS V14.01,2013-06-01 09:53:00,
2013-06-01 05:54:00,75.4,71.9,29.99,ENE,73,2.0,5.0,89,0.00,,---,0.00,VWS V14.01,2013-06-01 09:54:00,
2013-06-01 05:55:00,75.4,71.9,29.99,ESE,115,2.0,5.0,89,0.00,,---,0.00,VWS V14.01,2013-06-01 09:55:00,
2013-06-01 05:57:00,75.4,71.9,29.99,East,94,1.0,4.0,89,0.00,,---,0.00,VWS V14.01,2013-06-01 09:57:00,
2013-06-01 05:58:00,75.4,71.9,29.99,East,94,1.0,4.0,89,0.00,,---,0.00,VWS V14.01,2013-06-01 09:58:00,
2013-06-01 06:00:00,75.4,71.9,29.99,ENE,67,1.0,4.0,89,0.00,,---,0.00,VWS V14.01,2013-06-01 10:00:00,
2013-06-01 06:03:00,75.4,71.9,29.99,East,94,0.0,5.0,89,0.00,,---,0.00,VWS V14.01,2013-06-01 10:03:00,
2013-06-01 06:05:00,75.4,71.9,29.99,East,94,0.0,5.0,89,0.00,,---,0.00,VWS V14.01,2013-06-01 10:05:00,
2013-06-01 06:06:00,75.4,71.9,29.99,ENE,59,1.0,5.0,89,0.00,,---,0.00,VWS V14.01,2013-06-01 10:06:00,
2013-06-01 06:09:00,75.4,71.9,29.99,ENE,60,3.0,3.0,89,0.00,,---,0.00,VWS V14.01,2013-06-01 10:09:00,
2013-06-01 06:10:00,75.4,71.9,30.00,East,96,3.0,7.0,89,0.00,,---,0.00,VWS V14.01,2013-06-01 10:10:00,
2013-06-01 06:11:00,75.4,71.9,30.00,East,96,3.0,7.0,89,0.00,,---,0.00,VWS V14.01,2013-06-01 10:11:00,
2013-06-01 06:13:00,75.4,71.9,30.00,NE,41,2.0,3.0,89,0.00,,---,0.00,VWS V14.01,2013-06-01 10:13:00,
2013-06-01 06:15:00,75.4,71.9,30.00,East,88,1.0,3.0,89,0.00,,---,0.00,VWS V14.01,2013-06-01 10:15:00,
2013-06-01 06:16:00,75.4,71.9,30.00,East,88,1.0,3.0,89,0.00,,---,0.00,VWS V14.01,2013-06-01 10:16:00,
2013-06-01 06:17:00,75.4,71.9,30.00,East,87,2.0,2.0,89,0.00,,---,0.00,VWS V14.01,2013-06-01 10:17:00,
2013-06-01 06:18:00,75.4,71.9,30.00,NNE,12,3.0,3.0,89,0.00,,---,0.00,VWS V14.01,2013-06-01 10:18:00,
2013-06-01 06:20:00,75.4,71.9,30.00,NE,44,1.0,3.0,89,0.00,,---,0.00,VWS V14.01,2013-06-01 10:20:00,
2013-06-01 06:21:00,75.4,71.9,30.00,NE,52,1.0,2.0,89,0.00,,---,0.00,VWS V14.01,2013-06-01 10:21:00,
2013-06-01 06:22:00,75.4,71.9,30.00,ENE,57,2.0,2.0,89,0.00,,---,0.00,VWS V14.01,2013-06-01 10:22:00,
2013-06-01 06:24:00,75.4,72.3,30.00,East,96,1.0,3.0,90,0.00,,---,0.00,VWS V14.01,2013-06-01 10:24:00,
2013-06-01 06:25:00,75.4,72.3,30.00,East,96,2.0,3.0,90,0.00,,---,0.00,VWS V14.01,2013-06-01 10:25:00,
2013-06-01 06:26:00,75.4,72.3,30.00,East,85,2.0,2.0,90,0.00,,---,0.00,VWS V14.01,2013-06-01 10:26:00,
2013-06-01 06:27:00,75.4,72.3,30.00,East,85,1.0,2.0,90,0.00,,---,0.00,VWS V14.01,2013-06-01 10:27:00,
2013-06-01 06:29:00,75.4,72.3,30.00,East,85,2.0,2.0,90,0.00,,---,0.00,VWS V14.01,2013-06-01 10:29:00,
2013-06-01 06:30:00,75.4,72.3,30.00,East,88,2.0,4.0,90,0.00,,---,0.00,VWS V14.01,2013-06-01 10:30:00,
2013-06-01 06:31:00,75.4,72.3,30.00,East,89,2.0,4.0,90,0.00,,---,0.00,VWS V14.01,2013-06-01 10:31:00,
2013-06-01 06:33:00,75.4,72.3,30.00,ENE,74,1.0,3.0,90,0.00,,---,0.00,VWS V14.01,2013-06-01 10:33:00,
2013-06-01 06:34:00,75.4,72.3,30.00,ENE,74,1.0,3.0,90,0.00,,---,0.00,VWS V14.01,2013-06-01 10:34:00,
2013-06-01 06:35:00,75.4,72.3,30.00,East,82,2.0,3.0,90,0.00,,---,0.00,VWS V14.01,2013-06-01 10:35:00,
2013-06-01 06:37:00,75.4,72.3,30.00,East,82,2.0,2.0,90,0.00,,---,0.00,VWS V14.01,2013-06-01 10:37:00,
2013-06-01 06:39:00,75.4,72.3,30.00,East,82,1.0,2.0,90,0.00,,---,0.00,VWS V14.01,2013-06-01 10:39:00,
2013-06-01 06:40:00,75.4,72.3,30.00,ENE,68,3.0,3.0,90,0.00,,---,0.00,VWS V14.01,2013-06-01 10:40:00,
2013-06-01 06:41:00,75.4,72.3,30.00,East,80,1.0,3.0,90,0.00,,---,0.00,VWS V14.01,2013-06-01 10:41:00,
2013-06-01 06:42:00,75.3,72.2,30.00,ESE,103,1.0,2.0,90,0.00,,---,0.00,VWS V14.01,2013-06-01 10:42:00,
2013-06-01 06:44:00,75.3,72.2,30.00,ENE,69,1.0,3.0,90,0.00,,---,0.00,VWS V14.01,2013-06-01 10:44:00,
2013-06-01 06:45:00,75.3,72.2,30.00,ENE,69,1.0,3.0,90,0.00,,---,0.00,VWS V14.01,2013-06-01 10:45:00,
2013-06-01 06:46:00,75.3,72.2,30.00,ENE,69,0.0,3.0,90,0.00,,---,0.00,VWS V14.01,2013-06-01 10:46:00,
2013-06-01 06:48:00,75.3,72.2,30.00,ESE,102,1.0,4.0,90,0.00,,---,0.00,VWS V14.01,2013-06-01 10:48:00,
2013-06-01 06:49:00,75.3,72.2,30.00,ESE,102,1.0,4.0,90,0.00,,---,0.00,VWS V14.01,2013-06-01 10:49:00,
2013-06-01 06:50:00,75.3,72.2,30.00,ESE,102,1.0,4.0,90,0.00,,---,0.00,VWS V14.01,2013-06-01 10:50:00,
2013-06-01 06:51:00,75.2,72.1,30.00,East,101,2.0,2.0,90,0.00,,---,0.00,VWS V14.01,2013-06-01 10:51:00,
2013-06-01 06:52:00,75.3,72.2,30.00,East,101,1.0,2.0,90,0.00,,---,0.00,VWS V14.01,2013-06-01 10:52:00,
2013-06-01 06:53:00,75.2,72.1,30.00,East,101,2.0,2.0,90,0.00,,---,0.00,VWS V14.01,2013-06-01 10:53:00,
2013-06-01 06:55:00,75.2,72.1,30.01,East,101,1.0,2.0,90,0.00,,---,0.00,VWS V14.01,2013-06-01 10:55:00,
2013-06-01 06:57:00,75.2,72.1,30.01,NNE,17,2.0,3.0,90,0.00,,---,0.00,VWS V14.01,2013-06-01 10:57:00,
2013-06-01 06:58:00,75.2,72.1,30.01,NNE,17,0.0,3.0,90,0.00,,---,0.00,VWS V14.01,2013-06-01 10:58:00,
2013-06-01 07:00:00,75.2,72.1,30.01,North,360,1.0,3.0,90,0.00,,---,0.00,VWS V14.01,2013-06-01 11:00:00,
2013-06-01 07:01:00,75.1,72.0,30.01,North,360,1.0,3.0,90,0.00,,---,0.00,VWS V14.01,2013-06-01 11:01:00,
2013-06-01 07:03:00,75.1,72.3,30.00,NE,47,1.0,3.0,91,0.00,,---,0.00,VWS V14.01,2013-06-01 11:03:00,
2013-06-01 07:04:00,75.1,72.3,30.00,NE,45,1.0,3.0,91,0.00,,---,0.00,VWS V14.01,2013-06-01 11:04:00,
2013-06-01 07:05:00,75.1,72.3,30.00,NE,52,2.0,3.0,91,0.00,,---,0.00,VWS V14.01,2013-06-01 11:05:00,
2013-06-01 07:08:00,75.1,72.3,30.00,ENE,69,2.0,2.0,91,0.00,,---,0.00,VWS V14.01,2013-06-01 11:08:00,
2013-06-01 07:09:00,75.1,72.3,30.00,ENE,69,0.0,2.0,91,0.00,,---,0.00,VWS V14.01,2013-06-01 11:09:00,
2013-06-01 07:10:00,75.1,72.3,30.00,East,101,5.0,5.0,91,0.00,,---,0.00,VWS V14.01,2013-06-01 11:10:00,
2013-06-01 07:11:00,75.1,72.3,30.00,East,101,1.0,5.0,91,0.00,,---,0.00,VWS V14.01,2013-06-01 11:11:00,
2013-06-01 07:14:00,75.2,72.4,30.00,NE,44,2.0,3.0,91,0.00,,---,0.00,VWS V14.01,2013-06-01 11:14:00,
2013-06-01 07:15:00,75.2,72.4,30.01,NE,36,4.0,4.0,91,0.00,,---,0.00,VWS V14.01,2013-06-01 11:15:00,
2013-06-01 07:16:00,75.2,72.4,30.01,NE,36,1.0,4.0,91,0.00,,---,0.00,VWS V14.01,2013-06-01 11:16:00,
2013-06-01 07:17:00,75.2,72.4,30.01,NE,55,1.0,2.0,91,0.00,,---,0.00,VWS V14.01,2013-06-01 11:17:00,
2013-06-01 07:20:00,75.2,72.4,30.01,NE,46,2.0,5.0,91,0.00,,---,0.00,VWS V14.01,2013-06-01 11:20:00,
2013-06-01 07:22:00,75.2,72.4,30.01,ENE,65,1.0,2.0,91,0.00,,---,0.00,VWS V14.01,2013-06-01 11:22:00,
2013-06-01 07:23:00,75.3,72.5,30.01,East,98,1.0,3.0,91,0.00,,---,0.00,VWS V14.01,2013-06-01 11:23:00,
2013-06-01 07:25:00,75.3,72.5,30.01,NE,55,2.0,3.0,91,0.00,,---,0.00,VWS V14.01,2013-06-01 11:25:00,
2013-06-01 07:26:00,75.3,72.5,30.01,NE,55,0.0,3.0,91,0.00,,---,0.00,VWS V14.01,2013-06-01 11:26:00,
2013-06-01 07:28:00,75.3,72.5,30.01,ESE,103,1.0,2.0,91,0.00,,---,0.00,VWS V14.01,2013-06-01 11:28:00,
2013-06-01 07:30:00,75.3,72.5,30.01,NNE,33,2.0,3.0,91,0.00,,---,0.00,VWS V14.01,2013-06-01 11:30:00,
2013-06-01 07:31:00,75.3,72.5,30.01,East,92,3.0,3.0,91,0.00,,---,0.00,VWS V14.01,2013-06-01 11:31:00,
2013-06-01 07:32:00,75.3,72.2,30.01,NNE,33,1.0,2.0,90,0.00,,---,0.00,VWS V14.01,2013-06-01 11:32:00,
2013-06-01 07:34:00,75.4,72.3,30.01,East,88,1.0,2.0,90,0.00,,---,0.00,VWS V14.01,2013-06-01 11:34:00,
2013-06-01 07:35:00,75.4,72.3,30.01,ENE,63,2.0,4.0,90,0.00,,---,0.00,VWS V14.01,2013-06-01 11:35:00,
2013-06-01 07:37:00,75.4,72.3,30.01,ENE,59,1.0,3.0,90,0.00,,---,0.00,VWS V14.01,2013-06-01 11:37:00,
2013-06-01 07:38:00,75.4,72.3,30.01,ENE,70,1.0,3.0,90,0.00,,---,0.00,VWS V14.01,2013-06-01 11:38:00,
2013-06-01 07:39:00,75.5,72.4,30.01,ENE,70,1.0,3.0,90,0.00,,---,0.00,VWS V14.01,2013-06-01 11:39:00,
2013-06-01 07:40:00,75.5,72.4,30.01,ENE,70,1.0,3.0,90,0.00,,---,0.00,VWS V14.01,2013-06-01 11:40:00,
2013-06-01 07:42:00,75.5,72.4,30.01,ENE,70,1.0,2.0,90,0.00,,---,0.00,VWS V14.01,2013-06-01 11:42:00,
2013-06-01 07:43:00,75.5,72.4,30.01,ESE,103,4.0,4.0,90,0.00,,---,0.00,VWS V14.01,2013-06-01 11:43:00,
2013-06-01 07:44:00,75.6,72.5,30.01,NE,38,3.0,4.0,90,0.00,,---,0.00,VWS V14.01,2013-06-01 11:44:00,
2013-06-01 07:45:00,75.6,72.5,30.01,NE,41,3.0,4.0,90,0.00,,---,0.00,VWS V14.01,2013-06-01 11:45:00,
2013-06-01 07:46:00,75.6,72.5,30.01,NE,41,2.0,3.0,90,0.00,,---,0.00,VWS V14.01,2013-06-01 11:46:00,
2013-06-01 07:47:00,75.7,72.6,30.01,NNE,32,4.0,4.0,90,0.00,,---,0.00,VWS V14.01,2013-06-01 11:47:00,
2013-06-01 07:48:00,75.7,72.6,30.01,ENE,71,2.0,4.0,90,0.00,,---,0.00,VWS V14.01,2013-06-01 11:48:00,
2013-06-01 07:50:00,75.7,72.6,30.01,ENE,71,2.0,5.0,90,0.00,,---,0.00,VWS V14.01,2013-06-01 11:50:00,
2013-06-01 07:52:00,75.8,72.7,30.01,ENE,62,1.0,2.0,90,0.00,,---,0.00,VWS V14.01,2013-06-01 11:52:00,
2013-06-01 07:53:00,75.8,72.7,30.01,East,80,2.0,3.0,90,0.00,,---,0.00,VWS V14.01,2013-06-01 11:53:00,
2013-06-01 07:55:00,75.8,72.7,30.02,NE,53,3.0,4.0,90,0.00,,---,0.00,VWS V14.01,2013-06-01 11:55:00,
2013-06-01 07:58:00,75.8,72.7,30.02,East,91,1.0,3.0,90,0.00,,---,0.00,VWS V14.01,2013-06-01 11:58:00,
2013-06-01 08:00:00,75.8,72.7,30.02,East,92,2.0,3.0,90,0.00,,---,0.00,VWS V14.01,2013-06-01 12:00:00,
2013-06-01 08:01:00,75.8,72.7,30.02,East,92,0.0,3.0,90,0.00,,---,0.00,VWS V14.01,2013-06-01 12:01:00,
2013-06-01 08:03:00,75.9,72.8,30.02,East,87,2.0,3.0,90,0.00,,---,0.00,VWS V14.01,2013-06-01 12:03:00,
2013-06-01 08:04:00,75.9,72.8,30.02,East,87,1.0,3.0,90,0.00,,---,0.00,VWS V14.01,2013-06-01 12:04:00,
2013-06-01 08:05:00,75.9,72.8,30.02,NE,53,3.0,4.0,90,0.00,,---,0.00,VWS V14.01,2013-06-01 12:05:00,
2013-06-01 08:06:00,75.9,72.8,30.02,NE,53,3.0,4.0,90,0.00,,---,0.00,VWS V14.01,2013-06-01 12:06:00,
2013-06-01 08:08:00,75.9,72.8,30.02,ENE,61,2.0,3.0,90,0.00,,---,0.00,VWS V14.01,2013-06-01 12:08:00,
2013-06-01 08:09:00,75.9,72.8,30.02,ENE,61,0.0,3.0,90,0.00,,---,0.00,VWS V14.01,2013-06-01 12:09:00,
2013-06-01 08:10:00,76.0,72.9,30.02,NNE,26,2.0,3.0,90,0.00,,---,0.00,VWS V14.01,2013-06-01 12:10:00,
2013-06-01 08:11:00,76.0,72.9,30.02,NE,36,3.0,4.0,90,0.00,,---,0.00,VWS V14.01,2013-06-01 12:11:00,
2013-06-01 08:14:00,76.0,72.9,30.02,ENE,78,2.0,4.0,90,0.00,,---,0.00,VWS V14.01,2013-06-01 12:14:00,
2013-06-01 08:15:00,76.1,73.0,30.02,ENE,76,1.0,4.0,90,0.00,,---,0.00,VWS V14.01,2013-06-01 12:15:00,
2013-06-01 08:16:00,76.1,73.0,30.02,ENE,61,3.0,4.0,90,0.00,,---,0.00,VWS V14.01,2013-06-01 12:16:00,
2013-06-01 08:19:00,76.2,73.1,30.02,ESE,103,0.0,4.0,90,0.00,,---,0.00,VWS V14.01,2013-06-01 12:19:00,
2013-06-01 08:20:00,76.3,73.2,30.02,East,96,1.0,4.0,90,0.00,,---,0.00,VWS V14.01,2013-06-01 12:20:00,
2013-06-01 08:21:00,76.3,73.2,30.02,East,82,2.0,4.0,90,0.00,,---,0.00,VWS V14.01,2013-06-01 12:21:00,
2013-06-01 08:23:00,76.3,72.8,30.02,NE,36,3.0,4.0,89,0.00,,---,0.00,VWS V14.01,2013-06-01 12:23:00,
2013-06-01 08:25:00,76.4,72.9,30.02,East,87,1.0,4.0,89,0.00,,---,0.00,VWS V14.01,2013-06-01 12:25:00,
2013-06-01 08:26:00,76.4,72.9,30.02,NE,53,2.0,3.0,89,0.00,,---,0.00,VWS V14.01,2013-06-01 12:26:00,
2013-06-01 08:27:00,76.4,72.9,30.02,ESE,103,2.0,3.0,89,0.00,,---,0.00,VWS V14.01,2013-06-01 12:27:00,
2013-06-01 08:29:00,76.5,73.0,30.02,East,88,3.0,5.0,89,0.00,,---,0.00,VWS V14.01,2013-06-01 12:29:00,
2013-06-01 08:30:00,76.5,73.0,30.02,NE,45,3.0,5.0,89,0.00,,---,0.00,VWS V14.01,2013-06-01 12:30:00,
2013-06-01 08:32:00,76.5,73.0,30.02,NE,44,2.0,4.0,89,0.00,,---,0.00,VWS V14.01,2013-06-01 12:32:00,
2013-06-01 08:33:00,76.5,73.0,30.02,NE,44,1.0,4.0,89,0.00,,---,0.00,VWS V14.01,2013-06-01 12:33:00,
2013-06-01 08:35:00,76.5,73.0,30.02,East,80,1.0,4.0,89,0.00,,---,0.00,VWS V14.01,2013-06-01 12:35:00,
2013-06-01 08:37:00,76.5,73.3,30.02,SE,128,1.0,3.0,90,0.00,,---,0.00,VWS V14.01,2013-06-01 12:37:00,
2013-06-01 08:38:00,76.6,73.4,30.02,SE,126,2.0,3.0,90,0.00,,---,0.00,VWS V14.01,2013-06-01 12:38:00,
2013-06-01 08:39:00,76.6,73.4,30.02,East,94,2.0,3.0,90,0.00,,---,0.00,VWS V14.01,2013-06-01 12:39:00,
2013-06-01 08:40:00,76.6,73.4,30.02,ENE,59,1.0,3.0,90,0.00,,---,0.00,VWS V14.01,2013-06-01 12:40:00,
2013-06-01 08:43:00,76.6,73.1,30.02,East,100,2.0,5.0,89,0.00,,---,0.00,VWS V14.01,2013-06-01 12:43:00,
2013-06-01 08:44:00,76.5,73.0,30.02,East,100,1.0,5.0,89,0.00,,---,0.00,VWS V14.01,2013-06-01 12:44:00,
2013-06-01 08:45:00,76.5,73.0,30.02,East,82,2.0,5.0,89,0.00,,---,0.00,VWS V14.01,2013-06-01 12:45:00,
2013-06-01 08:46:00,76.5,73.3,30.02,East,82,0.0,1.0,90,0.00,,---,0.00,VWS V14.01,2013-06-01 12:46:00,
2013-06-01 08:48:00,76.6,73.4,30.02,East,82,0.0,1.0,90,0.00,,---,0.00,VWS V14.01,2013-06-01 12:48:00,
2013-06-01 08:49:00,76.6,73.4,30.02,ENE,63,1.0,1.0,90,0.00,,---,0.00,VWS V14.01,2013-06-01 12:49:00,
2013-06-01 08:50:00,76.6,73.4,30.02,ENE,69,2.0,3.0,90,0.00,,---,0.00,VWS V14.01,2013-06-01 12:50:00,
2013-06-01 08:52:00,76.6,73.4,30.02,NE,36,2.0,3.0,90,0.00,,---,0.00,VWS V14.01,2013-06-01 12:52:00,
2013-06-01 08:54:00,76.7,73.2,30.02,ESE,117,2.0,3.0,89,0.00,,---,0.00,VWS V14.01,2013-06-01 12:54:00,
2013-06-01 08:55:00,76.8,73.3,30.03,NNE,26,3.0,4.0,89,0.00,,---,0.00,VWS V14.01,2013-06-01 12:55:00,
2013-06-01 08:56:00,76.8,73.3,30.03,NNE,28,4.0,4.0,89,0.00,,---,0.00,VWS V14.01,2013-06-01 12:56:00,
2013-06-01 08:57:00,76.8,73.3,30.03,NE,42,2.0,3.0,89,0.00,,---,0.00,VWS V14.01,2013-06-01 12:57:00,
2013-06-01 08:59:00,76.9,73.4,30.03,NE,53,3.0,4.0,89,0.00,,---,0.00,VWS V14.01,2013-06-01 12:59:00,
2013-06-01 09:00:00,77.0,73.2,30.03,East,95,2.0,5.0,88,0.00,,---,0.00,VWS V14.01,2013-06-01 13:00:00,
2013-06-01 09:01:00,77.0,73.2,30.03,ENE,61,2.0,5.0,88,0.00,,---,0.00,VWS V14.01,2013-06-01 13:01:00,
2013-06-01 09:03:00,77.1,73.6,30.03,NE,49,3.0,3.0,89,0.00,,---,0.00,VWS V14.01,2013-06-01 13:03:00,
2013-06-01 09:04:00,77.2,73.7,30.03,ENE,58,2.0,3.0,89,0.00,,---,0.00,VWS V14.01,2013-06-01 13:04:00,
2013-06-01 09:05:00,77.3,73.5,30.03,ENE,69,2.0,7.0,88,0.00,,---,0.00,VWS V14.01,2013-06-01 13:05:00,
2013-06-01 09:06:00,77.3,73.5,30.03,ENE,69,3.0,7.0,88,0.00,,---,0.00,VWS V14.01,2013-06-01 13:06:00,
2013-06-01 09:07:00,77.4,73.6,30.03,ENE,68,1.0,2.0,88,0.00,,---,0.00,VWS V14.01,2013-06-01 13:07:00,
2013-06-01 09:09:00,77.6,73.8,30.03,East,92,3.0,3.0,88,0.00,,---,0.00,VWS V14.01,2013-06-01 13:09:00,
2013-06-01 09:10:00,77.6,73.8,30.03,ENE,74,2.0,3.0,88,0.00,,---,0.00,VWS V14.01,2013-06-01 13:10:00,
2013-06-01 09:12:00,77.8,73.6,30.02,ENE,69,2.0,3.0,87,0.00,,---,0.00,VWS V14.01,2013-06-01 13:12:00,
2013-06-01 09:14:00,78.0,73.8,30.03,ENE,61,2.0,4.0,87,0.00,,---,0.00,VWS V14.01,2013-06-01 13:14:00,
2013-06-01 09:15:00,78.0,73.8,30.03,ENE,59,2.0,4.0,87,0.00,,---,0.00,VWS V14.01,2013-06-01 13:15:00,
2013-06-01 09:16:00,78.1,73.9,30.02,NE,38,2.0,3.0,87,0.00,,---,0.00,VWS V14.01,2013-06-01 13:16:00,
2013-06-01 09:17:00,78.2,74.0,30.02,NE,41,3.0,5.0,87,0.00,,---,0.00,VWS V14.01,2013-06-01 13:17:00,
2013-06-01 09:19:00,78.3,73.8,30.02,East,93,2.0,5.0,86,0.00,,---,0.00,VWS V14.01,2013-06-01 13:19:00,
2013-06-01 09:20:00,78.3,73.8,30.02,NE,34,3.0,5.0,86,0.00,,---,0.00,VWS V14.01,2013-06-01 13:20:00,
2013-06-01 09:21:00,78.4,73.9,30.02,NE,48,3.0,5.0,86,0.00,,---,0.00,VWS V14.01,2013-06-01 13:21:00,
2013-06-01 09:22:00,78.5,74.0,30.02,ENE,75,3.0,5.0,86,0.00,,---,0.00,VWS V14.01,2013-06-01 13:22:00,
2013-06-01 09:23:00,78.6,74.1,30.02,NE,46,3.0,5.0,86,0.00,,---,0.00,VWS V14.01,2013-06-01 13:23:00,
2013-06-01 09:25:00,78.7,73.8,30.02,NNE,33,3.0,6.0,85,0.00,,---,0.00,VWS V14.01,2013-06-01 13:25:00,
2013-06-01 09:26:00,78.7,73.8,30.02,NE,53,2.0,6.0,85,0.00,,---,0.00,VWS V14.01,2013-06-01 13:26:00,
2013-06-01 09:28:00,78.9,74.0,30.02,East,100,2.0,7.0,85,0.00,,---,0.00,VWS V14.01,2013-06-01 13:28:00,
2013-06-01 09:30:00,79.1,74.2,30.02,ENE,68,4.0,7.0,85,0.00,,---,0.00,VWS V14.01,2013-06-01 13:30:00,
2013-06-01 09:31:00,79.1,74.2,30.02,East,94,8.0,10.0,85,0.00,,---,0.00,VWS V14.01,2013-06-01 13:31:00,
2013-06-01 09:33:00,79.2,73.9,30.02,ENE,78,2.0,8.0,84,0.00,,---,0.00,VWS V14.01,2013-06-01 13:33:00,
2013-06-01 09:35:00,79.3,74.4,30.02,NE,48,1.0,8.0,85,0.00,,---,0.00,VWS V14.01,2013-06-01 13:35:00,
2013-06-01 09:37:00,79.5,74.6,30.02,ENE,63,2.0,2.0,85,0.00,,---,0.00,VWS V14.01,2013-06-01 13:37:00,
2013-06-01 09:38:00,79.7,74.4,30.02,NE,55,2.0,7.0,84,0.00,,---,0.00,VWS V14.01,2013-06-01 13:38:00,
2013-06-01 09:40:00,79.8,74.5,30.02,NNE,33,2.0,7.0,84,0.00,,---,0.00,VWS V14.01,2013-06-01 13:40:00,
2013-06-01 09:42:00,80.0,74.7,30.02,North,11,5.0,6.0,84,0.00,,---,0.00,VWS V14.01,2013-06-01 13:42:00,
2013-06-01 09:44:00,80.1,74.5,30.02,East,91,5.0,6.0,83,0.00,,---,0.00,VWS V14.01,2013-06-01 13:44:00,
2013-06-01 09:45:00,80.2,74.2,30.02,ESE,117,5.0,8.0,82,0.00,,---,0.00,VWS V14.01,2013-06-01 13:45:00,
2013-06-01 09:46:00,80.2,74.2,30.02,ENE,73,3.0,5.0,82,0.00,,---,0.00,VWS V14.01,2013-06-01 13:46:00,
2013-06-01 09:47:00,80.2,74.2,30.02,ENE,74,4.0,5.0,82,0.00,,---,0.00,VWS V14.01,2013-06-01 13:47:00,
2013-06-01 09:49:00,80.2,74.2,30.02,East,85,7.0,7.0,82,0.00,,---,0.00,VWS V14.01,2013-06-01 13:49:00,
2013-06-01 09:50:00,80.2,74.2,30.02,ENE,68,3.0,7.0,82,0.00,,---,0.00,VWS V14.01,2013-06-01 13:50:00,
2013-06-01 09:52:00,80.2,74.2,30.02,ENE,63,3.0,8.0,82,0.00,,---,0.00,VWS V14.01,2013-06-01 13:52:00,
2013-06-01 09:53:00,80.1,74.1,30.02,East,94,3.0,8.0,82,0.00,,---,0.00,VWS V14.01,2013-06-01 13:53:00,
2013-06-01 09:54:00,80.1,74.1,30.02,NE,38,4.0,8.0,82,0.00,,---,0.00,VWS V14.01,2013-06-01 13:54:00,
2013-06-01 09:55:00,80.0,74.0,30.02,SE,124,5.0,8.0,82,0.00,,---,0.00,VWS V14.01,2013-06-01 13:55:00,
2013-06-01 09:57:00,80.0,74.0,30.02,NE,45,3.0,5.0,82,0.00,,---,0.00,VWS V14.01,2013-06-01 13:57:00,
2013-06-01 09:58:00,80.0,74.4,30.02,East,92,2.0,5.0,83,0.00,,---,0.00,VWS V14.01,2013-06-01 13:58:00,
2013-06-01 09:59:00,80.0,74.4,30.02,East,92,2.0,5.0,83,0.00,,---,0.00,VWS V14.01,2013-06-01 13:59:00,
2013-06-01 10:00:00,80.1,74.5,30.02,NE,51,1.0,7.0,83,0.00,,---,0.00,VWS V14.01,2013-06-01 14:00:00,
2013-06-01 10:02:00,80.2,74.2,30.02,East,88,3.0,9.0,82,0.00,,---,0.00,VWS V14.01,2013-06-01 14:02:00,
2013-06-01 10:03:00,80.2,74.2,30.02,East,88,1.0,9.0,82,0.00,,---,0.00,VWS V14.01,2013-06-01 14:03:00,
2013-06-01 10:04:00,80.3,74.3,30.02,NNE,33,4.0,9.0,82,0.00,,---,0.00,VWS V14.01,2013-06-01 14:04:00,
2013-06-01 10:05:00,80.4,74.4,30.02,East,83,2.0,9.0,82,0.00,,---,0.00,VWS V14.01,2013-06-01 14:05:00,
2013-06-01 10:06:00,80.4,74.4,30.02,East,83,3.0,9.0,82,0.00,,---,0.00,VWS V14.01,2013-06-01 14:06:00,
2013-06-01 10:09:00,80.7,74.3,30.02,ENE,64,3.0,4.0,81,0.00,,---,0.00,VWS V14.01,2013-06-01 14:09:00,
2013-06-01 10:10:00,80.7,74.3,30.02,ENE,61,1.0,4.0,81,0.00,,---,0.00,VWS V14.01,2013-06-01 14:10:00,
2013-06-01 10:12:00,80.9,74.5,30.02,East,91,0.0,2.0,81,0.00,,---,0.00,VWS V14.01,2013-06-01 14:12:00,
2013-06-01 10:14:00,81.0,74.6,30.02,ESE,112,2.0,7.0,81,0.00,,---,0.00,VWS V14.01,2013-06-01 14:14:00,
2013-06-01 10:15:00,81.1,74.7,30.02,ESE,115,2.0,7.0,81,0.00,,---,0.00,VWS V14.01,2013-06-01 14:15:00,
2013-06-01 10:16:00,81.1,74.3,30.02,ESE,110,4.0,4.0,80,0.00,,---,0.00,VWS V14.01,2013-06-01 14:16:00,
2013-06-01 10:18:00,81.2,74.4,30.02,ESE,111,2.0,4.0,80,0.00,,---,0.00,VWS V14.01,2013-06-01 14:18:00,
2013-06-01 10:19:00,81.1,74.3,30.02,ESE,113,2.0,4.0,80,0.00,,---,0.00,VWS V14.01,2013-06-01 14:19:00,
2013-06-01 10:20:00,81.1,74.3,30.02,ESE,117,1.0,4.0,80,0.00,,---,0.00,VWS V14.01,2013-06-01 14:20:00,
2013-06-01 10:21:00,81.1,74.3,30.02,NE,56,2.0,3.0,80,0.00,,---,0.00,VWS V14.01,2013-06-01 14:21:00,
2013-06-01 10:22:00,81.1,74.3,30.02,ENE,59,2.0,3.0,80,0.00,,---,0.00,VWS V14.01,2013-06-01 14:22:00,
2013-06-01 10:24:00,81.0,74.2,30.02,East,90,2.0,5.0,80,0.00,,---,0.00,VWS V14.01,2013-06-01 14:24:00,
2013-06-01 10:25:00,81.0,74.2,30.02,ESE,107,1.0,5.0,80,0.00,,---,0.00,VWS V14.01,2013-06-01 14:25:00,
2013-06-01 10:26:00,80.9,74.2,30.02,ESE,108,2.0,8.0,80,0.00,,---,0.00,VWS V14.01,2013-06-01 14:26:00,
2013-06-01 10:28:00,80.9,74.2,30.02,NE,38,4.0,5.0,80,0.00,,---,0.00,VWS V14.01,2013-06-01 14:28:00,
2013-06-01 10:30:00,80.8,74.1,30.02,ESE,105,1.0,5.0,80,0.00,,---,0.00,VWS V14.01,2013-06-01 14:30:00,
2013-06-01 10:31:00,80.7,74.0,30.02,SE,128,1.0,5.0,80,0.00,,---,0.00,VWS V14.01,2013-06-01 14:31:00,
2013-06-01 10:34:00,80.8,74.4,30.02,East,80,2.0,8.0,81,0.00,,---,0.00,VWS V14.01,2013-06-01 14:34:00,
2013-06-01 10:35:00,80.9,74.5,30.02,NE,41,2.0,8.0,81,0.00,,---,0.00,VWS V14.01,2013-06-01 14:35:00,
2013-06-01 10:36:00,80.9,74.5,30.02,NE,42,3.0,8.0,81,0.00,,---,0.00,VWS V14.01,2013-06-01 14:36:00,
2013-06-01 10:38:00,81.0,74.2,30.02,ENE,59,4.0,4.0,80,0.00,,---,0.00,VWS V14.01,2013-06-01 14:38:00,
2013-06-01 10:39:00,81.0,74.2,30.02,NE,51,1.0,5.0,80,0.00,,---,0.00,VWS V14.01,2013-06-01 14:39:00,
2013-06-01 10:40:00,81.1,74.3,30.02,East,82,1.0,6.0,80,0.00,,---,0.00,VWS V14.01,2013-06-01 14:40:00,
2013-06-01 10:41:00,81.1,74.3,30.02,ESE,102,4.0,4.0,80,0.00,,---,0.00,VWS V14.01,2013-06-01 14:41:00,
2013-06-01 10:43:00,81.1,74.0,30.02,East,87,1.0,11.0,79,0.00,,---,0.00,VWS V14.01,2013-06-01 14:43:00,
2013-06-01 10:45:00,81.4,74.3,30.02,East,86,2.0,11.0,79,0.00,,---,0.00,VWS V14.01,2013-06-01 14:45:00,
2013-06-01 10:47:00,81.5,74.4,30.02,SE,126,3.0,6.0,79,0.00,,---,0.00,VWS V14.01,2013-06-01 14:47:00,
2013-06-01 10:48:00,81.6,74.5,30.02,ENE,69,1.0,6.0,79,0.00,,---,0.00,VWS V14.01,2013-06-01 14:48:00,
2013-06-01 10:49:00,81.6,74.5,30.02,East,101,5.0,6.0,79,0.00,,---,0.00,VWS V14.01,2013-06-01 14:49:00,
2013-06-01 10:50:00,81.8,74.7,30.02,ESE,113,2.0,6.0,79,0.00,,---,0.00,VWS V14.01,2013-06-01 14:50:00,
2013-06-01 10:52:00,81.8,74.7,30.02,NE,49,2.0,2.0,79,0.00,,---,0.00,VWS V14.01,2013-06-01 14:52:00,
2013-06-01 10:53:00,81.9,74.8,30.02,NE,49,1.0,3.0,79,0.00,,---,0.00,VWS V14.01,2013-06-01 14:53:00,
2013-06-01 10:54:00,82.0,74.8,30.02,SSE,156,3.0,5.0,79,0.00,,---,0.00,VWS V14.01,2013-06-01 14:54:00,
2013-06-01 10:55:00,82.2,74.7,30.02,ESE,115,1.0,5.0,78,0.00,,---,0.00,VWS V14.01,2013-06-01 14:55:00,
2013-06-01 10:57:00,82.3,75.1,30.02,NE,42,5.0,5.0,79,0.00,,---,0.00,VWS V14.01,2013-06-01 14:57:00,
2013-06-01 10:58:00,82.4,74.9,30.02,ENE,78,3.0,5.0,78,0.00,,---,0.00,VWS V14.01,2013-06-01 14:58:00,
2013-06-01 11:00:00,82.6,74.7,30.02,East,84,2.0,5.0,77,0.00,,---,0.00,VWS V14.01,2013-06-01 15:00:00,
2013-06-01 11:03:00,82.9,74.9,30.01,ESE,112,4.0,5.0,77,0.00,,---,0.00,VWS V14.01,2013-06-01 15:03:00,
2013-06-01 11:04:00,83.0,75.1,30.01,East,89,2.0,5.0,77,0.00,,---,0.00,VWS V14.01,2013-06-01 15:04:00,
2013-06-01 11:05:00,83.1,75.2,30.01,East,89,2.0,5.0,77,0.00,,---,0.00,VWS V14.01,2013-06-01 15:05:00,
2013-06-01 11:06:00,83.1,75.2,30.01,East,98,2.0,5.0,77,0.00,,---,0.00,VWS V14.01,2013-06-01 15:06:00,
2013-06-01 11:08:00,83.4,75.4,30.02,NE,47,1.0,4.0,77,0.00,,---,0.00,VWS V14.01,2013-06-01 15:08:00,
2013-06-01 11:10:00,83.5,75.1,30.01,East,82,3.0,6.0,76,0.00,,---,0.00,VWS V14.01,2013-06-01 15:10:00,
2013-06-01 11:11:00,83.5,75.1,30.01,NNE,24,2.0,6.0,76,0.00,,---,0.00,VWS V14.01,2013-06-01 15:11:00,
2013-06-01 11:13:00,83.4,74.7,30.01,NE,35,1.0,4.0,75,0.00,,---,0.00,VWS V14.01,2013-06-01 15:13:00,
2013-06-01 11:15:00,83.4,74.7,30.01,ESE,107,5.0,8.0,75,0.00,,---,0.00,VWS V14.01,2013-06-01 15:15:00,
2013-06-01 11:17:00,83.4,74.7,30.01,NNE,16,5.0,6.0,75,0.00,,---,0.00,VWS V14.01,2013-06-01 15:17:00,
2013-06-01 11:18:00,83.4,74.7,30.01,NE,46,3.0,6.0,75,0.00,,---,0.00,VWS V14.01,2013-06-01 15:18:00,
2013-06-01 11:19:00,83.4,75.1,30.01,NE,38,4.0,6.0,76,0.00,,---,0.00,VWS V14.01,2013-06-01 15:19:00,
2013-06-01 11:20:00,83.4,75.1,30.01,NE,34,1.0,6.0,76,0.00,,---,0.00,VWS V14.01,2013-06-01 15:20:00,
2013-06-01 11:22:00,83.5,74.8,30.01,NE,36,4.0,5.0,75,0.00,,---,0.00,VWS V14.01,2013-06-01 15:22:00,
2013-06-01 11:23:00,83.5,74.8,30.01,NE,53,2.0,5.0,75,0.00,,---,0.00,VWS V14.01,2013-06-01 15:23:00,
2013-06-01 11:24:00,83.7,75.3,30.01,ENE,70,1.0,5.0,76,0.00,,---,0.00,VWS V14.01,2013-06-01 15:24:00,
2013-06-01 11:25:00,83.8,75.0,30.01,NE,46,2.0,5.0,75,0.00,,---,0.00,VWS V14.01,2013-06-01 15:25:00,
2013-06-01 11:26:00,83.9,75.1,30.01,East,101,1.0,3.0,75,0.00,,---,0.00,VWS V14.01,2013-06-01 15:26:00,
2013-06-01 11:29:00,84.2,75.4,30.01,East,81,2.0,5.0,75,0.00,,---,0.00,VWS V14.01,2013-06-01 15:29:00,
2013-06-01 11:30:00,84.3,75.1,30.01,East,80,2.0,5.0,74,0.00,,---,0.00,VWS V14.01,2013-06-01 15:30:00,
2013-06-01 11:31:00,84.3,75.1,30.01,NNE,15,4.0,5.0,74,0.00,,---,0.00,VWS V14.01,2013-06-01 15:31:00,
2013-06-01 11:32:00,84.4,75.2,30.01,North,5,3.0,4.0,74,0.00,,---,0.00,VWS V14.01,2013-06-01 15:32:00,
2013-06-01 11:34:00,84.5,75.3,30.01,NE,47,4.0,4.0,74,0.00,,---,0.00,VWS V14.01,2013-06-01 15:34:00,
2013-06-01 11:35:00,84.5,75.3,30.01,NNE,30,2.0,5.0,74,0.00,,---,0.00,VWS V14.01,2013-06-01 15:35:00,
2013-06-01 11:37:00,84.5,75.3,30.01,NE,37,2.0,2.0,74,0.00,,---,0.00,VWS V14.01,2013-06-01 15:37:00,
2013-06-01 11:39:00,84.6,75.0,30.01,NNE,28,2.0,5.0,73,0.00,,---,0.00,VWS V14.01,2013-06-01 15:39:00,
2013-06-01 11:40:00,84.6,75.0,30.01,ENE,71,0.0,5.0,73,0.00,,---,0.00,VWS V14.01,2013-06-01 15:40:00,
2013-06-01 11:42:00,84.6,75.0,30.01,SE,140,1.0,5.0,73,0.00,,---,0.00,VWS V14.01,2013-06-01 15:42:00,
2013-06-01 11:45:00,84.9,75.3,30.01,East,86,1.0,6.0,73,0.00,,---,0.00,VWS V14.01,2013-06-01 15:45:00,
2013-06-01 11:46:00,84.9,75.3,30.01,East,86,1.0,6.0,73,0.00,,---,0.00,VWS V14.01,2013-06-01 15:46:00,
2013-06-01 11:47:00,85.1,75.5,30.01,ENE,69,3.0,4.0,73,0.00,,---,0.00,VWS V14.01,2013-06-01 15:47:00,
2013-06-01 11:48:00,85.1,75.5,30.01,ENE,59,4.0,4.0,73,0.00,,---,0.00,VWS V14.01,2013-06-01 15:48:00,
2013-06-01 11:49:00,85.3,74.8,30.01,ENE,74,4.0,6.0,71,0.00,,---,0.00,VWS V14.01,2013-06-01 15:49:00,
2013-06-01 11:50:00,85.8,74.9,30.01,NE,49,3.0,6.0,70,0.00,,---,0.00,VWS V14.01,2013-06-01 15:50:00,
2013-06-01 11:51:00,85.8,74.9,30.01,ESE,119,3.0,3.0,70,0.00,,---,0.00,VWS V14.01,2013-06-01 15:51:00,
2013-06-01 11:53:00,86.1,75.2,30.01,East,79,3.0,4.0,70,0.00,,---,0.00,VWS V14.01,2013-06-01 15:53:00,
2013-06-01 11:54:00,86.3,75.4,30.01,SE,124,5.0,5.0,70,0.00,,---,0.00,VWS V14.01,2013-06-01 15:54:00,
2013-06-01 11:55:00,86.4,75.5,30.01,East,92,5.0,5.0,70,0.00,,---,0.00,VWS V14.01,2013-06-01 15:55:00,
2013-06-01 11:58:00,86.6,75.7,30.01,North,360,1.0,5.0,70,0.00,,---,0.00,VWS V14.01,2013-06-01 15:58:00,
2013-06-01 11:59:00,86.6,75.2,30.01,ENE,65,2.0,6.0,69,0.00,,---,0.00,VWS V14.01,2013-06-01 15:59:00,
2013-06-01 12:00:00,86.6,75.2,30.01,NE,37,3.0,6.0,69,0.00,,---,0.00,VWS V14.01,2013-06-01 16:00:00,
2013-06-01 12:03:00,86.6,75.2,30.01,ENE,59,4.0,6.0,69,0.00,,---,0.00,VWS V14.01,2013-06-01 16:03:00,
2013-06-01 12:04:00,86.6,75.2,30.01,East,87,3.0,6.0,69,0.00,,---,0.00,VWS V14.01,2013-06-01 16:04:00,
2013-06-01 12:05:00,86.5,75.1,30.01,ENE,69,2.0,6.0,69,0.00,,---,0.00,VWS V14.01,2013-06-01 16:05:00,
2013-06-01 12:06:00,86.5,75.1,30.01,ENE,69,2.0,6.0,69,0.00,,---,0.00,VWS V14.01,2013-06-01 16:06:00,
2013-06-01 12:07:00,86.5,75.1,30.01,NNE,25,2.0,5.0,69,0.00,,---,0.00,VWS V14.01,2013-06-01 16:07:00,
2013-06-01 12:08:00,86.4,75.0,30.01,ESE,108,2.0,5.0,69,0.00,,---,0.00,VWS V14.01,2013-06-01 16:08:00,
2013-06-01 12:09:00,86.3,74.9,30.01,ENE,70,1.0,7.0,69,0.00,,---,0.00,VWS V14.01,2013-06-01 16:09:00,
2013-06-01 12:10:00,86.3,75.4,30.01,NE,52,3.0,7.0,70,0.00,,---,0.00,VWS V14.01,2013-06-01 16:10:00,
2013-06-01 12:11:00,86.3,75.4,30.01,ENE,68,3.0,7.0,70,0.00,,---,0.00,VWS V14.01,2013-06-01 16:11:00,
2013-06-01 12:12:00,86.2,74.8,30.01,NE,49,3.0,5.0,69,0.00,,---,0.00,VWS V14.01,2013-06-01 16:12:00,
2013-06-01 12:13:00,86.2,74.8,30.01,NE,53,1.0,5.0,69,0.00,,---,0.00,VWS V14.01,2013-06-01 16:13:00,
2013-06-01 12:15:00,86.0,74.7,30.01,ESE,119,0.0,5.0,69,0.00,,---,0.00,VWS V14.01,2013-06-01 16:15:00,
2013-06-01 12:17:00,85.9,75.0,30.01,ENE,57,7.0,7.0,70,0.00,,---,0.00,VWS V14.01,2013-06-01 16:17:00,
2013-06-01 12:18:00,85.8,74.9,30.01,East,88,2.0,7.0,70,0.00,,---,0.00,VWS V14.01,2013-06-01 16:18:00,
2013-06-01 12:20:00,85.7,74.8,30.01,ENE,61,3.0,7.0,70,0.00,,---,0.00,VWS V14.01,2013-06-01 16:20:00,
2013-06-01 12:21:00,85.7,74.8,30.01,ENE,58,1.0,7.0,70,0.00,,---,0.00,VWS V14.01,2013-06-01 16:21:00,
2013-06-01 12:22:00,85.7,74.8,30.01,SSE,150,1.0,2.0,70,0.00,,---,0.00,VWS V14.01,2013-06-01 16:22:00,
2013-06-01 12:25:00,85.6,74.7,30.01,ENE,63,2.0,5.0,70,0.00,,---,0.00,VWS V14.01,2013-06-01 16:25:00,
2013-06-01 12:26:00,85.6,74.7,30.01,ENE,65,1.0,5.0,70,0.00,,---,0.00,VWS V14.01,2013-06-01 16:26:00,
2013-06-01 12:27:00,85.6,75.1,30.01,NNE,27,3.0,4.0,71,0.00,,---,0.00,VWS V14.01,2013-06-01 16:27:00,
2013-06-01 12:30:00,85.8,74.9,30.01,NE,38,5.0,5.0,70,0.00,,---,0.00,VWS V14.01,2013-06-01 16:30:00,
2013-06-01 12:31:00,85.9,75.0,30.01,NE,46,3.0,5.0,70,0.00,,---,0.00,VWS V14.01,2013-06-01 16:31:00,
2013-06-01 12:32:00,85.9,75.0,30.01,ENE,57,2.0,5.0,70,0.00,,---,0.00,VWS V14.01,2013-06-01 16:32:00,
2013-06-01 12:33:00,85.9,75.0,30.01,ENE,67,4.0,5.0,70,0.00,,---,0.00,VWS V14.01,2013-06-01 16:33:00,
2013-06-01 12:34:00,86.0,74.7,30.01,ENE,63,4.0,5.0,69,0.00,,---,0.00,VWS V14.01,2013-06-01 16:34:00,
2013-06-01 12:35:00,86.0,74.7,30.01,NE,35,2.0,7.0,69,0.00,,---,0.00,VWS V14.01,2013-06-01 16:35:00,
2013-06-01 12:37:00,86.0,75.1,30.01,East,99,2.0,2.0,70,0.00,,---,0.00,VWS V14.01,2013-06-01 16:37:00,
2013-06-01 12:38:00,86.0,75.1,30.01,NE,45,2.0,3.0,70,0.00,,---,0.00,VWS V14.01,2013-06-01 16:38:00,
2013-06-01 12:39:00,86.1,75.2,30.01,ENE,69,4.0,6.0,70,0.00,,---,0.00,VWS V14.01,2013-06-01 16:39:00,
2013-06-01 12:40:00,86.1,74.8,30.01,ENE,65,3.0,6.0,69,0.00,,---,0.00,VWS V14.01,2013-06-01 16:40:00,
2013-06-01 12:42:00,86.1,75.2,30.01,SSE,165,2.0,3.0,70,0.00,,---,0.00,VWS V14.01,2013-06-01 16:42:00,
2013-06-01 12:43:00,86.1,74.8,30.01,East,89,2.0,3.0,69,0.00,,---,0.00,VWS V14.01,2013-06-01 16:43:00,
2013-06-01 12:45:00,86.1,74.8,30.01,NE,53,2.0,4.0,69,0.00,,---,0.00,VWS V14.01,2013-06-01 16:45:00,
2013-06-01 12:46:00,86.1,75.2,30.01,ENE,57,4.0,4.0,70,0.00,,---,0.00,VWS V14.01,2013-06-01 16:46:00,
2013-06-01 12:50:00,86.3,75.4,30.01,NNW,344,3.0,4.0,70,0.00,,---,0.00,VWS V14.01,2013-06-01 16:50:00,
2013-06-01 12:51:00,86.3,75.4,30.01,NE,56,3.0,4.0,70,0.00,,---,0.00,VWS V14.01,2013-06-01 16:51:00,
2013-06-01 12:53:00,86.3,75.4,30.01,ESE,117,3.0,3.0,70,0.00,,---,0.00,VWS V14.01,2013-06-01 16:53:00,
2013-06-01 12:55:00,86.3,75.4,30.01,SE,126,2.0,6.0,70,0.00,,---,0.00,VWS V14.01,2013-06-01 16:55:00,
2013-06-01 12:56:00,86.4,75.5,30.01,ESE,121,2.0,2.0,70,0.00,,---,0.00,VWS V14.01,2013-06-01 16:56:00,
2013-06-01 12:57:00,86.4,75.5,30.01,ESE,104,1.0,2.0,70,0.00,,---,0.00,VWS V14.01,2013-06-01 16:57:00,
2013-06-01 12:59:00,86.5,75.6,30.01,NE,44,2.0,4.0,70,0.00,,---,0.00,VWS V14.01,2013-06-01 16:59:00,
2013-06-01 13:00:00,86.6,75.7,30.01,East,92,1.0,4.0,70,0.00,,---,0.00,VWS V14.01,2013-06-01 17:00:00,
2013-06-01 13:02:00,86.7,75.3,30.01,NE,49,2.0,4.0,69,0.00,,---,0.00,VWS V14.01,2013-06-01 17:02:00,
2013-06-01 13:04:00,86.7,75.8,30.01,East,84,3.0,4.0,70,0.00,,---,0.00,VWS V14.01,2013-06-01 17:04:00,
2013-06-01 13:05:00,86.8,75.8,30.01,SE,126,1.0,6.0,70,0.00,,---,0.00,VWS V14.01,2013-06-01 17:05:00,
2013-06-01 13:06:00,86.8,75.4,30.01,NE,45,3.0,6.0,69,0.00,,---,0.00,VWS V14.01,2013-06-01 17:06:00,
2013-06-01 13:09:00,86.7,75.8,30.01,ENE,64,2.0,4.0,70,0.00,,---,0.00,VWS V14.01,2013-06-01 17:09:00,
2013-06-01 13:10:00,86.7,75.3,30.01,NE,55,2.0,4.0,69,0.00,,---,0.00,VWS V14.01,2013-06-01 17:10:00,
2013-06-01 13:11:00,86.7,74.9,30.01,NE,49,3.0,5.0,68,0.00,,---,0.00,VWS V14.01,2013-06-01 17:11:00,
2013-06-01 13:15:00,86.3,74.5,30.01,East,86,2.0,5.0,68,0.00,,---,0.00,VWS V14.01,2013-06-01 17:15:00,
2013-06-01 13:16:00,86.3,74.9,30.01,ENE,63,3.0,5.0,69,0.00,,---,0.00,VWS V14.01,2013-06-01 17:16:00,
2013-06-01 13:20:00,86.5,75.6,30.01,NE,42,3.0,5.0,70,0.00,,---,0.00,VWS V14.01,2013-06-01 17:20:00,
2013-06-01 13:21:00,86.6,75.2,30.01,East,93,5.0,5.0,69,0.00,,---,0.00,VWS V14.01,2013-06-01 17:21:00,
2013-06-01 13:22:00,86.7,74.9,30.01,East,84,6.0,6.0,68,0.00,,---,0.00,VWS V14.01,2013-06-01 17:22:00,
2013-06-01 13:24:00,86.8,75.0,30.01,NNE,30,3.0,6.0,68,0.00,,---,0.00,VWS V14.01,2013-06-01 17:24:00,
2013-06-01 13:25:00,86.8,75.0,30.01,NNE,31,0.0,6.0,68,0.00,,---,0.00,VWS V14.01,2013-06-01 17:25:00,
2013-06-01 13:26:00,86.8,75.0,30.01,NNE,31,0.0,6.0,68,0.00,,---,0.00,VWS V14.01,2013-06-01 17:26:00,
2013-06-01 13:27:00,87.0,75.2,30.01,North,5,3.0,7.0,68,0.00,,---,0.00,VWS V14.01,2013-06-01 17:27:00,
2013-06-01 13:29:00,87.0,75.2,30.00,East,97,1.0,7.0,68,0.00,,---,0.00,VWS V14.01,2013-06-01 17:29:00,
2013-06-01 13:30:00,87.1,75.3,30.00,East,97,0.0,7.0,68,0.00,,---,0.00,VWS V14.01,2013-06-01 17:30:00,
2013-06-01 13:31:00,87.3,75.4,30.00,East,81,2.0,3.0,68,0.00,,---,0.00,VWS V14.01,2013-06-01 17:31:00,
2013-06-01 13:33:00,87.5,75.2,30.00,NE,37,1.0,3.0,67,0.00,,---,0.00,VWS V14.01,2013-06-01 17:33:00,
2013-06-01 13:35:00,87.6,75.3,30.00,North,5,3.0,5.0,67,0.00,,---,0.00,VWS V14.01,2013-06-01 17:35:00,
2013-06-01 13:36:00,87.7,75.4,30.00,ESE,123,1.0,3.0,67,0.00,,---,0.00,VWS V14.01,2013-06-01 17:36:00,
2013-06-01 13:37:00,87.7,75.4,30.00,ESE,113,4.0,4.0,67,0.00,,---,0.00,VWS V14.01,2013-06-01 17:37:00,
2013-06-01 13:39:00,87.6,75.3,30.00,East,79,1.0,5.0,67,0.00,,---,0.00,VWS V14.01,2013-06-01 17:39:00,
2013-06-01 13:40:00,87.6,75.3,30.00,SSE,151,1.0,5.0,67,0.00,,---,0.00,VWS V14.01,2013-06-01 17:40:00,
2013-06-01 13:42:00,87.7,75.4,30.00,East,92,1.0,3.0,67,0.00,,---,0.00,VWS V14.01,2013-06-01 17:42:00,
2013-06-01 13:45:00,87.9,75.6,30.00,NE,56,1.0,4.0,67,0.00,,---,0.00,VWS V14.01,2013-06-01 17:45:00,
2013-06-01 13:46:00,88.1,76.2,30.00,ENE,70,3.0,3.0,68,0.00,,---,0.00,VWS V14.01,2013-06-01 17:46:00,
2013-06-01 13:47:00,88.3,76.4,30.00,NNE,19,2.0,3.0,68,0.00,,---,0.00,VWS V14.01,2013-06-01 17:47:00,
2013-06-01 13:48:00,88.3,76.0,30.00,NNE,15,2.0,4.0,67,0.00,,---,0.00,VWS V14.01,2013-06-01 17:48:00,
2013-06-01 13:50:00,88.8,75.5,30.00,ENE,72,4.0,6.0,65,0.00,,---,0.00,VWS V14.01,2013-06-01 17:50:00,
2013-06-01 13:51:00,88.8,75.5,30.00,NNE,23,6.0,6.0,65,0.00,,---,0.00,VWS V14.01,2013-06-01 17:51:00,
2013-06-01 13:52:00,88.8,75.1,30.00,East,86,2.0,7.0,64,0.00,,---,0.00,VWS V14.01,2013-06-01 17:52:00,
2013-06-01 13:53:00,88.8,75.5,30.00,ENE,70,1.0,7.0,65,0.00,,---,0.00,VWS V14.01,2013-06-01 17:53:00,
2013-06-01 13:55:00,88.6,75.3,30.00,NE,52,2.0,7.0,65,0.00,,---,0.00,VWS V14.01,2013-06-01 17:55:00,
2013-06-01 13:56:00,88.6,75.3,30.00,NE,42,3.0,7.0,65,0.00,,---,0.00,VWS V14.01,2013-06-01 17:56:00,
2013-06-01 13:58:00,88.6,74.9,30.00,ESE,105,0.0,3.0,64,0.00,,---,0.00,VWS V14.01,2013-06-01 17:58:00,
2013-06-01 14:00:00,88.6,75.3,30.00,NNE,31,1.0,4.0,65,0.00,,---,0.00,VWS V14.01,2013-06-01 18:00:00,
2013-06-01 14:01:00,88.7,75.4,30.00,NE,52,3.0,4.0,65,0.00,,---,0.00,VWS V14.01,2013-06-01 18:01:00,
2013-06-01 14:04:00,89.1,75.8,29.99,NNW,329,2.0,3.0,65,0.00,,---,0.00,VWS V14.01,2013-06-01 18:04:00,
2013-06-01 14:05:00,89.3,75.1,29.99,NNE,16,1.0,5.0,63,0.00,,---,0.00,VWS V14.01,2013-06-01 18:05:00,
2013-06-01 14:06:00,89.2,75.0,29.99,NNE,14,4.0,5.0,63,0.00,,---,0.00,VWS V14.01,2013-06-01 18:06:00,
2013-06-01 14:07:00,89.2,75.0,29.99,NE,40,3.0,6.0,63,0.00,,---,0.00,VWS V14.01,2013-06-01 18:07:00,
2013-06-01 14:09:00,89.1,74.9,29.99,East,79,1.0,6.0,63,0.00,,---,0.00,VWS V14.01,2013-06-01 18:09:00,
2013-06-01 14:10:00,89.1,75.3,29.99,ENE,61,4.0,6.0,64,0.00,,---,0.00,VWS V14.01,2013-06-01 18:10:00,
2013-06-01 14:11:00,89.1,75.3,29.99,ENE,61,4.0,6.0,64,0.00,,---,0.00,VWS V14.01,2013-06-01 18:11:00,
2013-06-01 14:12:00,89.2,75.4,29.99,ENE,68,3.0,6.0,64,0.00,,---,0.00,VWS V14.01,2013-06-01 18:12:00,
2013-06-01 14:13:00,89.3,75.1,29.99,NNE,13,5.0,6.0,63,0.00,,---,0.00,VWS V14.01,2013-06-01 18:13:00,
2013-06-01 14:14:00,89.5,75.2,29.99,ESE,108,1.0,6.0,63,0.00,,---,0.00,VWS V14.01,2013-06-01 18:14:00,
2013-06-01 14:15:00,89.6,74.9,29.99,NE,49,3.0,6.0,62,0.00,,---,0.00,VWS V14.01,2013-06-01 18:15:00,
2013-06-01 14:17:00,89.6,74.9,29.99,NNE,17,3.0,5.0,62,0.00,,---,0.00,VWS V14.01,2013-06-01 18:17:00,
2013-06-01 14:18:00,89.7,75.0,29.99,NE,51,3.0,5.0,62,0.00,,---,0.00,VWS V14.01,2013-06-01 18:18:00,
2013-06-01 14:19:00,89.7,75.4,29.99,NE,55,1.0,5.0,63,0.00,,---,0.00,VWS V14.01,2013-06-01 18:19:00,
2013-06-01 14:20:00,89.9,75.6,29.99,East,79,5.0,6.0,63,0.00,,---,0.00,VWS V14.01,2013-06-01 18:20:00,
2013-06-01 14:23:00,90.1,74.8,29.98,East,92,2.0,5.0,61,0.00,,---,0.00,VWS V14.01,2013-06-01 18:23:00,
2013-06-01 14:24:00,90.2,74.9,29.98,East,82,3.0,5.0,61,0.00,,---,0.00,VWS V14.01,2013-06-01 18:24:00,
2013-06-01 14:25:00,90.4,75.6,29.98,East,82,0.0,5.0,62,0.00,,---,0.00,VWS V14.01,2013-06-01 18:25:00,
2013-06-01 14:27:00,90.5,75.7,29.98,East,82,1.0,1.0,62,0.00,,---,0.00,VWS V14.01,2013-06-01 18:27:00,
2013-06-01 14:29:00,90.8,75.0,29.98,NE,51,4.0,5.0,60,0.00,,---,0.00,VWS V14.01,2013-06-01 18:29:00,
2013-06-01 14:30:00,90.9,75.1,29.98,SW,221,2.0,5.0,60,0.00,,---,0.00,VWS V14.01,2013-06-01 18:30:00,
2013-06-01 14:32:00,90.9,75.1,29.98,North,360,4.0,4.0,60,0.00,,---,0.00,VWS V14.01,2013-06-01 18:32:00,
2013-06-01 14:33:00,90.8,75.0,29.98,NNE,18,2.0,4.0,60,0.00,,---,0.00,VWS V14.01,2013-06-01 18:33:00,
2013-06-01 14:35:00,90.8,75.5,29.98,NNE,24,2.0,4.0,61,0.00,,---,0.00,VWS V14.01,2013-06-01 18:35:00,
2013-06-01 14:37:00,91.0,75.7,29.98,NNW,346,2.0,2.0,61,0.00,,---,0.00,VWS V14.01,2013-06-01 18:37:00,
2013-06-01 14:38:00,91.1,75.8,29.98,NNE,15,3.0,3.0,61,0.00,,---,0.00,VWS V14.01,2013-06-01 18:38:00,
2013-06-01 14:39:00,91.2,75.9,29.98,NNW,347,5.0,5.0,61,0.00,,---,0.00,VWS V14.01,2013-06-01 18:39:00,
2013-06-01 14:40:00,91.5,75.7,29.98,NNE,20,1.0,6.0,60,0.00,,---,0.00,VWS V14.01,2013-06-01 18:40:00,
2013-06-01 14:41:00,91.5,75.7,29.98,NNE,20,1.0,6.0,60,0.00,,---,0.00,VWS V14.01,2013-06-01 18:41:00,
2013-06-01 14:43:00,91.7,75.3,29.98,NNE,21,2.0,4.0,59,0.00,,---,0.00,VWS V14.01,2013-06-01 18:43:00,
2013-06-01 14:44:00,91.7,75.8,29.98,NNE,15,2.0,4.0,60,0.00,,---,0.00,VWS V14.01,2013-06-01 18:44:00,
2013-06-01 14:45:00,91.8,75.9,29.98,North,355,5.0,5.0,60,0.00,,---,0.00,VWS V14.01,2013-06-01 18:45:00,
2013-06-01 14:47:00,92.0,75.6,29.98,North,355,3.0,5.0,59,0.00,,---,0.00,VWS V14.01,2013-06-01 18:47:00,
2013-06-01 14:48:00,92.1,75.7,29.98,NNE,22,1.0,5.0,59,0.00,,---,0.00,VWS V14.01,2013-06-01 18:48:00,
2013-06-01 14:50:00,92.3,75.4,29.97,NNE,16,3.0,5.0,58,0.00,,---,0.00,VWS V14.01,2013-06-01 18:50:00,
2013-06-01 14:51:00,92.4,75.5,29.98,NNE,31,4.0,4.0,58,0.00,,---,0.00,VWS V14.01,2013-06-01 18:51:00,
2013-06-01 14:52:00,92.4,75.5,29.97,East,98,2.0,4.0,58,0.00,,---,0.00,VWS V14.01,2013-06-01 18:52:00,
2013-06-01 14:53:00,92.4,75.0,29.97,NNE,14,2.0,4.0,57,0.00,,---,0.00,VWS V14.01,2013-06-01 18:53:00,
2013-06-01 14:55:00,92.6,75.7,29.97,East,84,3.0,4.0,58,0.00,,---,0.00,VWS V14.01,2013-06-01 18:55:00,
2013-06-01 14:57:00,92.6,75.2,29.97,ENE,75,2.0,7.0,57,0.00,,---,0.00,VWS V14.01,2013-06-01 18:57:00,
2013-06-01 14:58:00,92.7,75.2,29.97,NNE,25,2.0,7.0,57,0.00,,---,0.00,VWS V14.01,2013-06-01 18:58:00,
2013-06-01 14:59:00,92.8,75.3,29.97,ENE,71,2.0,7.0,57,0.00,,---,0.00,VWS V14.01,2013-06-01 18:59:00,
2013-06-01 15:00:00,92.9,75.4,29.97,North,360,3.0,7.0,57,0.00,,---,0.00,VWS V14.01,2013-06-01 19:00:00,
2013-06-01 15:02:00,92.9,74.9,29.97,North,5,4.0,4.0,56,0.00,,---,0.00,VWS V14.01,2013-06-01 19:02:00,
2013-06-01 15:03:00,92.8,74.3,29.97,North,360,2.0,4.0,55,0.00,,---,0.00,VWS V14.01,2013-06-01 19:03:00,
2013-06-01 15:05:00,92.7,74.7,29.97,NNE,17,1.0,4.0,56,0.00,,---,0.00,VWS V14.01,2013-06-01 19:05:00,
2013-06-01 15:06:00,92.7,74.7,29.97,NNE,17,1.0,1.0,56,0.00,,---,0.00,VWS V14.01,2013-06-01 19:06:00,
2013-06-01 15:07:00,92.6,74.6,29.97,NNE,17,0.0,1.0,56,0.00,,---,0.00,VWS V14.01,2013-06-01 19:07:00,
2013-06-01 15:09:00,92.6,74.6,29.97,NE,51,1.0,2.0,56,0.00,,---,0.00,VWS V14.01,2013-06-01 19:09:00,
2013-06-01 15:10:00,92.6,74.6,29.97,NE,51,1.0,3.0,56,0.00,,---,0.00,VWS V14.01,2013-06-01 19:10:00,
2013-06-01 15:11:00,92.6,74.6,29.97,WSW,258,1.0,1.0,56,0.00,,---,0.00,VWS V14.01,2013-06-01 19:11:00,
2013-06-01 15:12:00,92.6,75.2,29.97,West,270,1.0,2.0,57,0.00,,---,0.00,VWS V14.01,2013-06-01 19:12:00,
2013-06-01 15:15:00,92.7,74.7,29.97,ESE,108,3.0,4.0,56,0.00,,---,0.00,VWS V14.01,2013-06-01 19:15:00,
2013-06-01 15:16:00,92.7,74.7,29.97,ESE,108,3.0,4.0,56,0.00,,---,0.00,VWS V14.01,2013-06-01 19:16:00,
2013-06-01 15:18:00,92.6,74.6,29.97,East,94,8.0,8.0,56,0.00,,---,0.00,VWS V14.01,2013-06-01 19:18:00,
2013-06-01 15:19:00,92.3,74.9,29.97,ENE,60,4.0,8.0,57,0.00,,---,0.00,VWS V14.01,2013-06-01 19:19:00,
2013-06-01 15:20:00,92.2,74.8,29.97,ENE,68,1.0,8.0,57,0.00,,---,0.00,VWS V14.01,2013-06-01 19:20:00,
2013-06-01 15:22:00,92.1,74.7,29.97,ENE,70,0.0,2.0,57,0.00,,---,0.00,VWS V14.01,2013-06-01 19:22:00,
2013-06-01 15:23:00,92.1,74.7,29.97,ENE,70,0.0,2.0,57,0.00,,---,0.00,VWS V14.01,2013-06-01 19:23:00,
2013-06-01 15:25:00,92.2,75.3,29.97,North,360,2.0,3.0,58,0.00,,---,0.00,VWS V14.01,2013-06-01 19:25:00,
2013-06-01 15:28:00,92.0,75.1,29.97,South,186,5.0,5.0,58,0.00,,---,0.00,VWS V14.01,2013-06-01 19:28:00,
2013-06-01 15:29:00,92.0,75.1,29.97,South,186,2.0,5.0,58,0.00,,---,0.00,VWS V14.01,2013-06-01 19:29:00,
2013-06-01 15:30:00,91.5,76.2,29.97,East,100,3.0,5.0,61,0.00,,---,0.00,VWS V14.01,2013-06-01 19:30:00,
2013-06-01 15:34:00,90.0,77.1,29.97,West,267,5.0,8.0,66,0.00,,---,0.00,VWS V14.01,2013-06-01 19:34:00,
2013-06-01 15:35:00,89.6,76.7,29.97,SW,226,4.0,8.0,66,0.00,,---,0.00,VWS V14.01,2013-06-01 19:35:00,
2013-06-01 15:36:00,88.7,76.8,29.97,West,267,6.0,8.0,68,0.00,,---,0.00,VWS V14.01,2013-06-01 19:36:00,
2013-06-01 15:37:00,88.1,76.7,29.97,SSW,210,1.0,6.0,69,0.00,,---,0.00,VWS V14.01,2013-06-01 19:37:00,
2013-06-01 15:39:00,86.9,76.4,29.97,South,180,1.0,7.0,71,0.00,,---,0.00,VWS V14.01,2013-06-01 19:39:00,
2013-06-01 15:40:00,86.4,76.7,29.97,WSW,242,4.0,7.0,73,0.00,,---,0.00,VWS V14.01,2013-06-01 19:40:00,
2013-06-01 15:41:00,86.3,76.6,29.97,SW,233,6.0,6.0,73,0.00,,---,0.00,VWS V14.01,2013-06-01 19:41:00,
2013-06-01 15:48:00,84.9,76.5,29.97,SSW,196,2.0,5.0,76,0.00,,---,0.00,VWS V14.01,2013-06-01 19:48:00,
2013-06-01 15:49:00,84.8,76.4,29.97,SSW,196,2.0,5.0,76,0.00,,---,0.00,VWS V14.01,2013-06-01 19:49:00,
2013-06-01 15:50:00,84.7,76.7,29.97,WSW,257,4.0,9.0,77,0.00,,---,0.00,VWS V14.01,2013-06-01 19:50:00,
2013-06-01 15:54:00,84.7,76.7,29.97,WSW,246,3.0,7.0,77,0.00,,---,0.00,VWS V14.01,2013-06-01 19:54:00,
2013-06-01 15:55:00,84.7,76.7,29.97,SW,221,4.0,7.0,77,0.00,,---,0.00,VWS V14.01,2013-06-01 19:55:00,
2013-06-01 15:56:00,84.8,76.8,29.97,SSW,210,2.0,7.0,77,0.00,,---,0.00,VWS V14.01,2013-06-01 19:56:00,
2013-06-01 15:58:00,85.1,77.5,29.96,SSW,192,3.0,7.0,78,0.00,,---,0.00,VWS V14.01,2013-06-01 19:58:00,
2013-06-01 16:00:00,85.5,77.5,29.96,West,277,4.0,7.0,77,0.00,,---,0.00,VWS V14.01,2013-06-01 20:00:00,
2013-06-01 16:01:00,85.6,77.6,29.96,WSW,244,7.0,9.0,77,0.00,,---,0.00,VWS V14.01,2013-06-01 20:01:00,
2013-06-01 16:04:00,85.8,77.4,29.96,West,267,2.0,3.0,76,0.00,,---,0.00,VWS V14.01,2013-06-01 20:04:00,
2013-06-01 16:05:00,85.8,77.0,29.96,West,267,1.0,3.0,75,0.00,,---,0.00,VWS V14.01,2013-06-01 20:05:00,
2013-06-01 16:06:00,85.8,77.0,29.96,West,269,2.0,4.0,75,0.00,,---,0.00,VWS V14.01,2013-06-01 20:06:00,
2013-06-01 16:08:00,86.1,77.2,29.96,NW,306,2.0,8.0,75,0.00,,---,0.00,VWS V14.01,2013-06-01 20:08:00,
2013-06-01 16:10:00,86.2,76.9,29.95,WSW,241,2.0,8.0,74,0.00,,---,0.00,VWS V14.01,2013-06-01 20:10:00,
2013-06-01 16:12:00,86.3,77.0,29.95,West,269,5.0,7.0,74,0.00,,---,0.00,VWS V14.01,2013-06-01 20:12:00,
2013-06-01 16:13:00,86.4,77.1,29.95,SSW,192,3.0,7.0,74,0.00,,---,0.00,VWS V14.01,2013-06-01 20:13:00,
2013-06-01 16:15:00,86.5,77.2,29.95,SSW,204,6.0,10.0,74,0.00,,---,0.00,VWS V14.01,2013-06-01 20:15:00,
2013-06-01 16:16:00,86.5,77.2,29.95,WSW,240,3.0,10.0,74,0.00,,---,0.00,VWS V14.01,2013-06-01 20:16:00,
2013-06-01 16:17:00,86.6,76.9,29.95,WNW,299,1.0,8.0,73,0.00,,---,0.00,VWS V14.01,2013-06-01 20:17:00,
2013-06-01 16:20:00,86.7,76.6,29.95,WSW,246,1.0,8.0,72,0.00,,---,0.00,VWS V14.01,2013-06-01 20:20:00,
2013-06-01 16:22:00,86.8,76.7,29.95,SW,236,0.0,5.0,72,0.00,,---,0.00,VWS V14.01,2013-06-01 20:22:00,
2013-06-01 16:23:00,86.9,77.2,29.95,SW,223,7.0,7.0,73,0.00,,---,0.00,VWS V14.01,2013-06-01 20:23:00,
2013-06-01 16:24:00,86.9,76.8,29.95,WSW,240,2.0,7.0,72,0.00,,---,0.00,VWS V14.01,2013-06-01 20:24:00,
2013-06-01 16:25:00,87.0,76.9,29.95,WSW,245,3.0,7.0,72,0.00,,---,0.00,VWS V14.01,2013-06-01 20:25:00,
2013-06-01 16:28:00,87.2,77.5,29.95,WNW,284,1.0,10.0,73,0.00,,---,0.00,VWS V14.01,2013-06-01 20:28:00,
2013-06-01 16:30:00,87.4,77.3,29.95,West,278,2.0,10.0,72,0.00,,---,0.00,VWS V14.01,2013-06-01 20:30:00,
2013-06-01 16:31:00,87.5,77.4,29.95,SSW,203,1.0,5.0,72,0.00,,---,0.00,VWS V14.01,2013-06-01 20:31:00,
2013-06-01 16:33:00,87.5,76.9,29.95,SSW,208,4.0,7.0,71,0.00,,---,0.00,VWS V14.01,2013-06-01 20:33:00,
2013-06-01 16:34:00,87.4,76.8,29.95,WSW,242,4.0,7.0,71,0.00,,---,0.00,VWS V14.01,2013-06-01 20:34:00,
2013-06-01 16:35:00,87.3,77.2,29.95,SSE,157,2.0,8.0,72,0.00,,---,0.00,VWS V14.01,2013-06-01 20:35:00,
2013-06-01 16:38:00,87.3,77.2,29.95,SSW,198,6.0,6.0,72,0.00,,---,0.00,VWS V14.01,2013-06-01 20:38:00,
2013-06-01 16:39:00,87.2,77.1,29.95,WNW,285,4.0,6.0,72,0.00,,---,0.00,VWS V14.01,2013-06-01 20:39:00,
2013-06-01 16:40:00,87.1,77.0,29.95,SW,232,4.0,6.0,72,0.00,,---,0.00,VWS V14.01,2013-06-01 20:40:00,
2013-06-01 16:43:00,86.8,76.7,29.95,WSW,240,3.0,7.0,72,0.00,,---,0.00,VWS V14.01,2013-06-01 20:43:00,
2013-06-01 16:44:00,86.7,76.6,29.95,SW,219,1.0,7.0,72,0.00,,---,0.00,VWS V14.01,2013-06-01 20:44:00,
2013-06-01 16:45:00,86.7,76.6,29.95,West,265,5.0,7.0,72,0.00,,---,0.00,VWS V14.01,2013-06-01 20:45:00,
2013-06-01 16:46:00,86.7,77.0,29.95,West,259,2.0,2.0,73,0.00,,---,0.00,VWS V14.01,2013-06-01 20:46:00,
2013-06-01 16:49:00,86.7,76.6,29.95,SW,229,5.0,5.0,72,0.00,,---,0.00,VWS V14.01,2013-06-01 20:49:00,
2013-06-01 16:51:00,86.6,76.9,29.95,West,267,1.0,5.0,73,0.00,,---,0.00,VWS V14.01,2013-06-01 20:51:00,
2013-06-01 16:52:00,86.5,76.8,29.95,WSW,257,5.0,5.0,73,0.00,,---,0.00,VWS V14.01,2013-06-01 20:52:00,
2013-06-01 16:55:00,86.2,76.5,29.95,SW,221,7.0,9.0,73,0.00,,---,0.00,VWS V14.01,2013-06-01 20:55:00,
2013-06-01 16:56:00,85.9,76.2,29.95,SW,227,3.0,4.0,73,0.00,,---,0.00,VWS V14.01,2013-06-01 20:56:00,
2013-06-01 16:57:00,85.9,76.7,29.95,SW,223,2.0,4.0,74,0.00,,---,0.00,VWS V14.01,2013-06-01 20:57:00,
2013-06-01 16:58:00,85.8,76.6,29.95,SW,225,2.0,4.0,74,0.00,,---,0.00,VWS V14.01,2013-06-01 20:58:00,
2013-06-01 17:00:00,85.7,76.5,29.95,WSW,253,1.0,4.0,74,0.00,,---,0.00,VWS V14.01,2013-06-01 21:00:00,
2013-06-01 17:01:00,85.8,76.2,29.95,West,278,2.0,4.0,73,0.00,,---,0.00,VWS V14.01,2013-06-01 21:01:00,
2013-06-01 17:03:00,85.8,76.2,29.95,SW,225,2.0,3.0,73,0.00,,---,0.00,VWS V14.01,2013-06-01 21:03:00,
2013-06-01 17:06:00,86.1,76.8,29.95,SSW,205,3.0,6.0,74,0.00,,---,0.00,VWS V14.01,2013-06-01 21:06:00,
2013-06-01 17:10:00,86.2,76.9,29.95,WSW,239,3.0,9.0,74,0.00,,---,0.00,VWS V14.01,2013-06-01 21:10:00,
2013-06-01 17:11:00,86.1,76.8,29.95,SW,231,5.0,9.0,74,0.00,,---,0.00,VWS V14.01,2013-06-01 21:11:00,
2013-06-01 17:12:00,86.1,76.8,29.95,West,264,6.0,11.0,74,0.00,,---,0.00,VWS V14.01,2013-06-01 21:12:00,
2013-06-01 17:13:00,86.1,76.8,29.95,SW,229,3.0,11.0,74,0.00,,---,0.00,VWS V14.01,2013-06-01 21:13:00,
2013-06-01 17:15:00,85.9,76.2,29.95,West,259,6.0,11.0,73,0.00,,---,0.00,VWS V14.01,2013-06-01 21:15:00,
2013-06-01 17:16:00,85.9,76.7,29.95,SSW,197,7.0,7.0,74,0.00,,---,0.00,VWS V14.01,2013-06-01 21:16:00,
2013-06-01 17:18:00,85.8,76.6,29.95,WSW,238,2.0,9.0,74,0.00,,---,0.00,VWS V14.01,2013-06-01 21:18:00,
2013-06-01 17:20:00,85.8,76.6,29.94,West,266,3.0,9.0,74,0.00,,---,0.00,VWS V14.01,2013-06-01 21:20:00,
2013-06-01 17:21:00,85.8,76.6,29.94,WSW,238,3.0,9.0,74,0.00,,---,0.00,VWS V14.01,2013-06-01 21:21:00,
2013-06-01 17:23:00,85.9,76.7,29.95,WSW,253,5.0,5.0,74,0.00,,---,0.00,VWS V14.01,2013-06-01 21:23:00,
2013-06-01 17:26:00,85.9,76.7,29.94,WSW,244,4.0,8.0,74,0.00,,---,0.00,VWS V14.01,2013-06-01 21:26:00,
2013-06-01 17:27:00,85.8,76.6,29.94,SSW,213,2.0,4.0,74,0.00,,---,0.00,VWS V14.01,2013-06-01 21:27:00,
2013-06-01 17:29:00,85.6,76.4,29.94,SSW,208,1.0,4.0,74,0.00,,---,0.00,VWS V14.01,2013-06-01 21:29:00,
2013-06-01 17:31:00,85.5,76.3,29.94,WSW,239,4.0,7.0,74,0.00,,---,0.00,VWS V14.01,2013-06-01 21:31:00,
2013-06-01 17:32:00,85.3,76.5,29.94,SSW,206,4.0,8.0,75,0.00,,---,0.00,VWS V14.01,2013-06-01 21:32:00,
2013-06-01 17:34:00,85.0,76.2,29.94,SW,215,0.0,8.0,75,0.00,,---,0.00,VWS V14.01,2013-06-01 21:34:00,
2013-06-01 17:37:00,84.8,76.0,29.94,WSW,252,0.0,1.0,75,0.00,,---,0.00,VWS V14.01,2013-06-01 21:37:00,
2013-06-01 17:38:00,84.8,76.0,29.94,SW,217,5.0,5.0,75,0.00,,---,0.00,VWS V14.01,2013-06-01 21:38:00,
2013-06-01 17:40:00,84.8,76.0,29.94,SW,215,2.0,5.0,75,0.00,,---,0.00,VWS V14.01,2013-06-01 21:40:00,
2013-06-01 17:43:00,84.8,76.4,29.95,WNW,286,1.0,3.0,76,0.00,,---,0.00,VWS V14.01,2013-06-01 21:43:00,
2013-06-01 17:44:00,84.9,76.5,29.95,WSW,240,3.0,3.0,76,0.00,,---,0.00,VWS V14.01,2013-06-01 21:44:00,
2013-06-01 17:45:00,84.8,76.4,29.95,SW,235,1.0,3.0,76,0.00,,---,0.00,VWS V14.01,2013-06-01 21:45:00,
2013-06-01 17:46:00,84.8,76.4,29.95,WSW,257,3.0,4.0,76,0.00,,---,0.00,VWS V14.01,2013-06-01 21:46:00,
2013-06-01 17:49:00,84.8,76.4,29.95,West,261,2.0,6.0,76,0.00,,---,0.00,VWS V14.01,2013-06-01 21:49:00,
2013-06-01 17:51:00,84.7,76.3,29.95,SSW,200,1.0,6.0,76,0.00,,---,0.00,VWS V14.01,2013-06-01 21:51:00,
2013-06-01 17:55:00,84.4,76.0,29.95,SW,217,1.0,4.0,76,0.00,,---,0.00,VWS V14.01,2013-06-01 21:55:00,
2013-06-01 17:56:00,84.3,75.9,29.96,SW,217,1.0,1.0,76,0.00,,---,0.00,VWS V14.01,2013-06-01 21:56:00,
2013-06-01 17:57:00,84.3,75.9,29.96,SW,217,1.0,1.0,76,0.00,,---,0.00,VWS V14.01,2013-06-01 21:57:00,
2013-06-01 18:00:00,84.0,76.0,29.95,SW,215,1.0,6.0,77,0.00,,---,0.00,VWS V14.01,2013-06-01 22:00:00,
2013-06-01 18:01:00,83.9,75.9,29.95,West,262,1.0,3.0,77,0.00,,---,0.00,VWS V14.01,2013-06-01 22:01:00,
2013-06-01 18:02:00,83.8,75.8,29.95,SSW,207,2.0,3.0,77,0.00,,---,0.00,VWS V14.01,2013-06-01 22:02:00,
2013-06-01 18:03:00,83.8,75.8,29.95,SW,223,2.0,3.0,77,0.00,,---,0.00,VWS V14.01,2013-06-01 22:03:00,
2013-06-01 18:05:00,83.6,76.0,29.95,NW,305,2.0,3.0,78,0.00,,---,0.00,VWS V14.01,2013-06-01 22:05:00,
2013-06-01 18:08:00,83.5,75.9,29.95,NW,305,0.0,1.0,78,0.00,,---,0.00,VWS V14.01,2013-06-01 22:08:00,
2013-06-01 18:09:00,83.5,75.9,29.95,SSW,195,1.0,1.0,78,0.00,,---,0.00,VWS V14.01,2013-06-01 22:09:00,
2013-06-01 18:10:00,83.5,75.9,29.95,SW,232,1.0,1.0,78,0.00,,---,0.00,VWS V14.01,2013-06-01 22:10:00,
2013-06-01 18:12:00,83.5,76.3,29.96,WSW,248,7.0,7.0,79,0.00,,---,0.00,VWS V14.01,2013-06-01 22:12:00,
2013-06-01 18:14:00,83.3,76.1,29.96,SW,215,2.0,8.0,79,0.00,,---,0.00,VWS V14.01,2013-06-01 22:14:00,
2013-06-01 18:15:00,83.3,76.1,29.96,SW,215,0.0,8.0,79,0.00,,---,0.00,VWS V14.01,2013-06-01 22:15:00,
2013-06-01 18:17:00,83.2,76.0,29.96,SW,215,0.0,1.0,79,0.00,,---,0.00,VWS V14.01,2013-06-01 22:17:00,
2013-06-01 18:19:00,83.2,76.0,29.96,WSW,249,1.0,3.0,79,0.00,,---,0.00,VWS V14.01,2013-06-01 22:19:00,
2013-06-01 18:20:00,83.2,76.0,29.96,WSW,249,1.0,3.0,79,0.00,,---,0.00,VWS V14.01,2013-06-01 22:20:00,
2013-06-01 18:24:00,83.0,75.8,29.96,West,267,0.0,2.0,79,0.00,,---,0.00,VWS V14.01,2013-06-01 22:24:00,
2013-06-01 18:25:00,82.9,75.7,29.96,WNW,282,3.0,3.0,79,0.00,,---,0.00,VWS V14.01,2013-06-01 22:25:00,
2013-06-01 18:26:00,82.9,75.7,29.96,NW,323,0.0,3.0,79,0.00,,---,0.00,VWS V14.01,2013-06-01 22:26:00,
2013-06-01 18:31:00,82.8,75.6,29.96,West,273,0.0,3.0,79,0.00,,---,0.00,VWS V14.01,2013-06-01 22:31:00,
2013-06-01 18:32:00,82.8,75.6,29.97,SW,216,1.0,3.0,79,0.00,,---,0.00,VWS V14.01,2013-06-01 22:32:00,
2013-06-01 18:34:00,82.8,76.0,29.97,SW,221,0.0,3.0,80,0.00,,---,0.00,VWS V14.01,2013-06-01 22:34:00,
2013-06-01 18:36:00,82.8,76.0,29.97,WSW,248,0.0,3.0,80,0.00,,---,0.00,VWS V14.01,2013-06-01 22:36:00,
2013-06-01 18:38:00,82.7,75.2,29.97,North,5,2.0,5.0,78,0.00,,---,0.00,VWS V14.01,2013-06-01 22:38:00,
2013-06-01 18:40:00,82.3,73.2,29.97,North,5,3.0,7.0,74,0.00,,---,0.00,VWS V14.01,2013-06-01 22:40:00,
2013-06-01 18:41:00,82.2,72.7,29.97,NW,325,3.0,7.0,73,0.00,,---,0.00,VWS V14.01,2013-06-01 22:41:00,
2013-06-01 18:43:00,81.8,72.3,29.97,NNE,15,1.0,4.0,73,0.00,,---,0.00,VWS V14.01,2013-06-01 22:43:00,
2013-06-01 18:46:00,81.5,72.4,29.98,NE,51,1.0,4.0,74,0.00,,---,0.00,VWS V14.01,2013-06-01 22:46:00,
2013-06-01 18:47:00,81.4,72.3,29.98,NE,51,1.0,2.0,74,0.00,,---,0.00,VWS V14.01,2013-06-01 22:47:00,
2013-06-01 18:51:00,81.0,72.3,29.98,ESE,103,1.0,2.0,75,0.00,,---,0.00,VWS V14.01,2013-06-01 22:51:00,
2013-06-01 18:52:00,81.0,72.3,29.98,East,93,3.0,3.0,75,0.00,,---,0.00,VWS V14.01,2013-06-01 22:52:00,
2013-06-01 18:53:00,80.9,72.2,29.98,East,96,1.0,5.0,75,0.00,,---,0.00,VWS V14.01,2013-06-01 22:53:00,
2013-06-01 18:55:00,80.7,72.4,29.98,ESE,114,0.0,5.0,76,0.00,,---,0.00,VWS V14.01,2013-06-01 22:55:00,
2013-06-01 18:58:00,80.5,73.8,29.97,ESE,118,0.0,1.0,80,0.00,,---,0.00,VWS V14.01,2013-06-01 22:58:00,
2013-06-01 18:59:00,80.4,74.0,29.97,ESE,118,1.0,1.0,81,0.00,,---,0.00,VWS V14.01,2013-06-01 22:59:00,
2013-06-01 19:01:00,80.2,74.2,29.97,ESE,115,2.0,2.0,82,0.00,,---,0.00,VWS V14.01,2013-06-01 23:01:00,
2013-06-01 19:03:00,79.9,74.3,29.97,East,92,1.0,3.0,83,0.04,,---,0.04,VWS V14.01,2013-06-01 23:03:00,
2013-06-01 19:05:00,79.3,73.0,29.97,East,92,1.0,3.0,81,0.04,,---,0.04,VWS V14.01,2013-06-01 23:05:00,
2013-06-01 19:06:00,79.0,72.7,29.97,East,92,2.0,3.0,81,0.05,,---,0.05,VWS V14.01,2013-06-01 23:06:00,
2013-06-01 19:07:00,78.5,72.9,29.98,East,92,0.0,1.0,83,0.05,,---,0.05,VWS V14.01,2013-06-01 23:07:00,
2013-06-01 19:10:00,77.8,72.9,29.98,East,92,0.0,1.0,85,0.06,,---,0.06,VWS V14.01,2013-06-01 23:10:00,
2013-06-01 19:11:00,77.6,73.1,29.98,East,92,0.0,1.0,86,0.06,,---,0.06,VWS V14.01,2013-06-01 23:11:00,
2013-06-01 19:14:00,77.0,73.2,29.97,East,92,0.0,0.0,88,0.06,,---,0.06,VWS V14.01,2013-06-01 23:14:00,
2013-06-01 19:15:00,76.7,72.9,29.97,East,92,0.0,0.0,88,0.06,,---,0.06,VWS V14.01,2013-06-01 23:15:00,
2013-06-01 19:16:00,76.6,72.8,29.97,East,92,0.0,0.0,88,0.06,,---,0.06,VWS V14.01,2013-06-01 23:16:00,
2013-06-01 19:17:00,76.5,73.0,29.97,East,92,0.0,0.0,89,0.06,,---,0.06,VWS V14.01,2013-06-01 23:17:00,
2013-06-01 19:19:00,76.3,73.2,29.97,East,92,0.0,0.0,90,0.06,,---,0.06,VWS V14.01,2013-06-01 23:19:00,
2013-06-01 19:20:00,76.1,73.0,29.97,East,92,0.0,1.0,90,0.06,,---,0.06,VWS V14.01,2013-06-01 23:20:00,
2013-06-01 19:21:00,76.0,72.9,29.97,East,92,0.0,0.0,90,0.06,,---,0.06,VWS V14.01,2013-06-01 23:21:00,
2013-06-01 19:22:00,75.9,72.8,29.97,East,92,0.0,0.0,90,0.06,,---,0.06,VWS V14.01,2013-06-01 23:22:00,
2013-06-01 19:23:00,75.8,72.7,29.97,East,92,0.0,0.0,90,0.06,,---,0.06,VWS V14.01,2013-06-01 23:23:00,
2013-06-01 19:24:00,75.8,73.0,29.97,East,92,0.0,0.0,91,0.06,,---,0.06,VWS V14.01,2013-06-01 23:24:00,
2013-06-01 19:26:00,75.7,72.9,29.97,East,92,1.0,1.0,91,0.06,,---,0.06,VWS V14.01,2013-06-01 23:26:00,
2013-06-01 19:28:00,75.6,73.1,29.97,East,79,0.0,2.0,92,0.06,,---,0.06,VWS V14.01,2013-06-01 23:28:00,
2013-06-01 19:29:00,75.6,73.1,29.97,East,79,0.0,2.0,92,0.06,,---,0.06,VWS V14.01,2013-06-01 23:29:00,
2013-06-01 19:31:00,75.6,73.1,29.97,East,79,0.0,2.0,92,0.06,,---,0.06,VWS V14.01,2013-06-01 23:31:00,
2013-06-01 19:33:00,75.5,73.0,29.97,East,79,0.0,0.0,92,0.06,,---,0.06,VWS V14.01,2013-06-01 23:33:00,
2013-06-01 19:34:00,75.5,73.0,29.97,East,79,1.0,1.0,92,0.06,,---,0.06,VWS V14.01,2013-06-01 23:34:00,
2013-06-01 19:35:00,75.5,73.0,29.97,East,79,0.0,1.0,92,0.06,,---,0.06,VWS V14.01,2013-06-01 23:35:00,
2013-06-01 19:36:00,75.5,73.0,29.98,East,79,1.0,1.0,92,0.06,,---,0.06,VWS V14.01,2013-06-01 23:36:00,
2013-06-01 19:39:00,75.4,72.9,29.98,East,79,0.0,1.0,92,0.06,,---,0.06,VWS V14.01,2013-06-01 23:39:00,
2013-06-01 19:40:00,75.4,72.9,29.98,East,79,0.0,1.0,92,0.06,,---,0.06,VWS V14.01,2013-06-01 23:40:00,
2013-06-01 19:41:00,75.3,72.5,29.98,East,79,0.0,1.0,91,0.06,,---,0.06,VWS V14.01,2013-06-01 23:41:00,
2013-06-01 19:42:00,75.3,72.8,29.97,East,79,0.0,0.0,92,0.06,,---,0.06,VWS V14.01,2013-06-01 23:42:00,
2013-06-01 19:44:00,75.3,72.8,29.97,East,79,0.0,0.0,92,0.06,,---,0.06,VWS V14.01,2013-06-01 23:44:00,
2013-06-01 19:45:00,75.3,72.8,29.97,East,79,0.0,0.0,92,0.06,,---,0.06,VWS V14.01,2013-06-01 23:45:00,
2013-06-01 19:46:00,75.3,72.8,29.97,East,79,0.0,0.0,92,0.06,,---,0.06,VWS V14.01,2013-06-01 23:46:00,
2013-06-01 19:47:00,75.3,72.8,29.97,East,79,0.0,0.0,92,0.06,,---,0.06,VWS V14.01,2013-06-01 23:47:00,
2013-06-01 19:50:00,75.2,73.0,29.97,East,79,0.0,0.0,93,0.06,,---,0.06,VWS V14.01,2013-06-01 23:50:00,
2013-06-01 19:52:00,75.3,73.1,29.98,East,79,0.0,1.0,93,0.06,,---,0.06,VWS V14.01,2013-06-01 23:52:00,
2013-06-01 19:53:00,75.2,73.0,29.98,East,79,0.0,1.0,93,0.06,,---,0.06,VWS V14.01,2013-06-01 23:53:00,
2013-06-01 19:56:00,75.2,73.0,29.98,East,79,0.0,1.0,93,0.06,,---,0.06,VWS V14.01,2013-06-01 23:56:00,
2013-06-01 19:57:00,75.2,73.4,29.98,East,79,0.0,0.0,94,0.06,,---,0.06,VWS V14.01,2013-06-01 23:57:00,
2013-06-01 19:58:00,75.2,73.4,29.98,East,79,0.0,0.0,94,0.06,,---,0.06,VWS V14.01,2013-06-01 23:58:00,
2013-06-01 19:59:00,75.1,73.3,29.98,East,79,0.0,0.0,94,0.06,,---,0.06,VWS V14.01,2013-06-01 23:59:00,
2013-06-01 20:00:00,75.1,73.3,29.98,East,79,0.0,0.0,94,0.06,,---,0.06,VWS V14.01,2013-06-02 00:00:00,
2013-06-01 20:01:00,75.1,73.3,29.98,East,79,0.0,0.0,94,0.06,,---,0.06,VWS V14.01,2013-06-02 00:01:00,
2013-06-01 20:04:00,75.1,73.3,29.98,East,79,0.0,1.0,94,0.05,,---,0.06,VWS V14.01,2013-06-02 00:04:00,
2013-06-01 20:05:00,75.2,73.4,29.98,East,79,0.0,1.0,94,0.05,,---,0.06,VWS V14.01,2013-06-02 00:05:00,
2013-06-01 20:07:00,75.2,73.4,29.98,East,79,0.0,1.0,94,0.01,,---,0.06,VWS V14.01,2013-06-02 00:07:00,
2013-06-01 20:09:00,75.2,73.4,29.98,East,79,0.0,1.0,94,0.01,,---,0.06,VWS V14.01,2013-06-02 00:09:00,
2013-06-01 20:10:00,75.2,73.4,29.98,East,79,0.0,1.0,94,0.01,,---,0.06,VWS V14.01,2013-06-02 00:10:00,
2013-06-01 20:11:00,75.2,73.4,29.98,East,79,0.0,1.0,94,0.01,,---,0.06,VWS V14.01,2013-06-02 00:11:00,
2013-06-01 20:14:00,75.3,73.8,29.98,East,79,0.0,0.0,95,0.00,,---,0.06,VWS V14.01,2013-06-02 00:14:00,
2013-06-01 20:15:00,75.4,73.9,29.98,East,79,0.0,0.0,95,0.00,,---,0.06,VWS V14.01,2013-06-02 00:15:00,
2013-06-01 20:16:00,75.4,73.9,29.98,East,79,0.0,0.0,95,0.00,,---,0.06,VWS V14.01,2013-06-02 00:16:00,
2013-06-01 20:17:00,75.4,73.6,29.98,East,79,0.0,0.0,94,0.00,,---,0.06,VWS V14.01,2013-06-02 00:17:00,
2013-06-01 20:18:00,75.4,73.6,29.98,East,79,0.0,0.0,94,0.00,,---,0.06,VWS V14.01,2013-06-02 00:18:00,
2013-06-01 20:20:00,75.4,73.9,29.98,East,79,0.0,0.0,95,0.00,,---,0.06,VWS V14.01,2013-06-02 00:20:00,
2013-06-01 20:21:00,75.4,73.9,29.98,East,79,0.0,0.0,95,0.00,,---,0.06,VWS V14.01,2013-06-02 00:21:00,
2013-06-01 20:22:00,75.4,73.9,29.98,East,79,0.0,0.0,95,0.00,,---,0.06,VWS V14.01,2013-06-02 00:22:00,
2013-06-01 20:23:00,75.4,73.6,29.98,East,79,0.0,0.0,94,0.00,,---,0.06,VWS V14.01,2013-06-02 00:23:00,
2013-06-01 20:26:00,75.4,73.9,29.98,East,79,1.0,1.0,95,0.00,,---,0.06,VWS V14.01,2013-06-02 00:26:00,
2013-06-01 20:27:00,75.4,73.9,29.98,East,79,1.0,1.0,95,0.00,,---,0.06,VWS V14.01,2013-06-02 00:27:00,
2013-06-01 20:28:00,75.4,73.9,29.98,East,79,1.0,1.0,95,0.00,,---,0.06,VWS V14.01,2013-06-02 00:28:00,
2013-06-01 20:29:00,75.4,73.9,29.98,East,79,2.0,2.0,95,0.00,,---,0.06,VWS V14.01,2013-06-02 00:29:00,
2013-06-01 20:32:00,75.4,73.9,29.98,East,79,0.0,0.0,95,0.00,,---,0.06,VWS V14.01,2013-06-02 00:32:00,
2013-06-01 20:33:00,75.4,73.9,29.98,East,79,0.0,0.0,95,0.00,,---,0.06,VWS V14.01,2013-06-02 00:33:00,
2013-06-01 20:34:00,75.4,73.9,29.98,East,79,0.0,0.0,95,0.00,,---,0.06,VWS V14.01,2013-06-02 00:34:00,
2013-06-01 20:35:00,75.4,73.9,29.98,East,79,0.0,0.0,95,0.00,,---,0.06,VWS V14.01,2013-06-02 00:35:00,
2013-06-01 20:36:00,75.4,73.9,29.98,East,79,0.0,0.0,95,0.00,,---,0.06,VWS V14.01,2013-06-02 00:36:00,
2013-06-01 20:37:00,75.5,74.0,29.98,East,79,0.0,0.0,95,0.00,,---,0.06,VWS V14.01,2013-06-02 00:37:00,
2013-06-01 20:40:00,75.5,74.0,29.98,East,79,0.0,0.0,95,0.00,,---,0.06,VWS V14.01,2013-06-02 00:40:00,
2013-06-01 20:42:00,75.5,74.0,29.98,East,79,0.0,1.0,95,0.00,,---,0.06,VWS V14.01,2013-06-02 00:42:00,
2013-06-01 20:45:00,75.4,73.9,29.99,East,79,0.0,1.0,95,0.00,,---,0.06,VWS V14.01,2013-06-02 00:45:00,
2013-06-01 20:46:00,75.5,74.0,29.99,East,79,0.0,1.0,95,0.00,,---,0.06,VWS V14.01,2013-06-02 00:46:00,
2013-06-01 20:47:00,75.5,74.0,29.99,East,79,0.0,0.0,95,0.00,,---,0.06,VWS V14.01,2013-06-02 00:47:00,
2013-06-01 20:49:00,75.4,73.9,29.99,East,79,0.0,0.0,95,0.00,,---,0.06,VWS V14.01,2013-06-02 00:49:00,
2013-06-01 20:51:00,75.4,73.9,29.99,East,88,0.0,2.0,95,0.00,,---,0.06,VWS V14.01,2013-06-02 00:51:00,
2013-06-01 20:52:00,75.4,73.9,29.99,East,88,0.0,0.0,95,0.00,,---,0.06,VWS V14.01,2013-06-02 00:52:00,
2013-06-01 20:54:00,75.4,73.9,29.99,East,88,0.0,0.0,95,0.00,,---,0.06,VWS V14.01,2013-06-02 00:54:00,
2013-06-01 20:55:00,75.3,73.8,29.99,East,88,0.0,1.0,95,0.00,,---,0.06,VWS V14.01,2013-06-02 00:55:00,
2013-06-01 20:57:00,75.4,73.9,29.99,East,88,0.0,0.0,95,0.00,,---,0.06,VWS V14.01,2013-06-02 00:57:00,
2013-06-01 20:58:00,75.4,73.9,29.99,East,88,0.0,0.0,95,0.00,,---,0.06,VWS V14.01,2013-06-02 00:58:00,
2013-06-01 21:00:00,75.4,73.9,29.99,East,88,0.0,0.0,95,0.00,,---,0.06,VWS V14.01,2013-06-02 01:00:00,
2013-06-01 21:02:00,75.4,73.9,29.99,East,88,0.0,1.0,95,0.00,,---,0.06,VWS V14.01,2013-06-02 01:02:00,
2013-06-01 21:03:00,75.4,73.9,30.00,East,88,0.0,1.0,95,0.00,,---,0.06,VWS V14.01,2013-06-02 01:03:00,
2013-06-01 21:05:00,75.5,74.0,30.00,ENE,65,1.0,3.0,95,0.00,,---,0.06,VWS V14.01,2013-06-02 01:05:00,
2013-06-01 21:07:00,75.6,74.4,30.00,ENE,65,1.0,2.0,96,0.00,,---,0.06,VWS V14.01,2013-06-02 01:07:00,
2013-06-01 21:08:00,75.6,74.4,30.00,ENE,65,0.0,2.0,96,0.00,,---,0.06,VWS V14.01,2013-06-02 01:08:00,
2013-06-01 21:09:00,75.7,74.5,30.00,SE,144,1.0,5.0,96,0.01,,---,0.07,VWS V14.01,2013-06-02 01:09:00,
2013-06-01 21:10:00,75.7,74.5,30.00,East,91,1.0,5.0,96,0.01,,---,0.07,VWS V14.01,2013-06-02 01:10:00,
2013-06-01 21:13:00,75.7,74.5,30.00,ENE,77,1.0,2.0,96,0.02,,---,0.08,VWS V14.01,2013-06-02 01:13:00,
2013-06-01 21:14:00,75.6,74.4,30.00,East,86,2.0,5.0,96,0.02,,---,0.08,VWS V14.01,2013-06-02 01:14:00,
2013-06-01 21:15:00,75.6,74.4,30.00,South,186,1.0,5.0,96,0.02,,---,0.08,VWS V14.01,2013-06-02 01:15:00,
2013-06-01 21:16:00,75.6,74.1,30.01,East,84,3.0,5.0,95,0.03,,---,0.09,VWS V14.01,2013-06-02 01:16:00,
2013-06-01 21:19:00,75.5,74.0,30.01,NE,44,3.0,4.0,95,0.05,,---,0.11,VWS V14.01,2013-06-02 01:19:00,
2013-06-01 21:20:00,75.4,73.9,30.01,NE,37,2.0,4.0,95,0.06,,---,0.12,VWS V14.01,2013-06-02 01:20:00,
2013-06-01 21:21:00,75.3,73.8,30.02,ESE,115,1.0,3.0,95,0.07,,---,0.13,VWS V14.01,2013-06-02 01:21:00,
2013-06-01 21:23:00,75.2,73.7,30.02,ENE,57,2.0,5.0,95,0.10,,---,0.16,VWS V14.01,2013-06-02 01:23:00,
2013-06-01 21:25:00,75.1,73.6,30.02,NE,36,1.0,5.0,95,0.13,,---,0.19,VWS V14.01,2013-06-02 01:25:00,
2013-06-01 21:27:00,75.0,73.5,30.02,NE,49,2.0,5.0,95,0.19,,---,0.25,VWS V14.01,2013-06-02 01:27:00,
2013-06-01 21:28:00,74.9,73.4,30.02,East,90,3.0,5.0,95,0.24,,---,0.30,VWS V14.01,2013-06-02 01:28:00,
2013-06-01 21:31:00,74.7,73.2,30.02,ENE,76,2.0,5.0,95,0.40,,---,0.46,VWS V14.01,2013-06-02 01:31:00,
2013-06-01 21:32:00,74.7,73.2,30.02,ENE,76,3.0,5.0,95,0.48,,---,0.54,VWS V14.01,2013-06-02 01:32:00,
2013-06-01 21:33:00,74.6,73.1,30.02,ESE,109,2.0,5.0,95,0.54,,---,0.60,VWS V14.01,2013-06-02 01:33:00,
2013-06-01 21:36:00,74.0,72.2,30.02,East,81,2.0,2.0,94,0.64,,---,0.70,VWS V14.01,2013-06-02 01:36:00,
2013-06-01 21:38:00,73.4,71.6,30.01,East,101,2.0,4.0,94,0.76,,---,0.82,VWS V14.01,2013-06-02 01:38:00,
2013-06-01 21:40:00,73.2,71.4,30.01,SE,131,2.0,4.0,94,0.80,,---,0.86,VWS V14.01,2013-06-02 01:40:00,
2013-06-01 21:41:00,72.7,70.6,30.02,East,80,3.0,5.0,93,0.88,,---,0.94,VWS V14.01,2013-06-02 01:41:00,
2013-06-01 21:43:00,72.4,70.3,30.01,West,268,4.0,5.0,93,0.92,,---,0.98,VWS V14.01,2013-06-02 01:43:00,
2013-06-01 21:45:00,72.1,70.3,30.00,SSE,153,1.0,5.0,94,1.02,,---,1.08,VWS V14.01,2013-06-02 01:45:00,
2013-06-01 21:46:00,72.0,70.5,30.00,ESE,123,1.0,8.0,95,1.09,,---,1.15,VWS V14.01,2013-06-02 01:46:00,
2013-06-01 21:48:00,71.8,70.3,29.99,East,82,5.0,8.0,95,1.13,,---,1.19,VWS V14.01,2013-06-02 01:48:00,
2013-06-01 21:49:00,71.8,70.3,29.99,ESE,120,2.0,8.0,95,1.14,,---,1.20,VWS V14.01,2013-06-02 01:49:00,
2013-06-01 21:50:00,71.8,70.6,29.99,NNW,342,4.0,8.0,96,1.17,,---,1.23,VWS V14.01,2013-06-02 01:50:00,
2013-06-01 21:51:00,71.8,70.6,29.99,NW,317,2.0,8.0,96,1.18,,---,1.24,VWS V14.01,2013-06-02 01:51:00,
2013-06-01 21:53:00,72.0,70.8,29.99,South,169,1.0,4.0,96,1.21,,---,1.27,VWS V14.01,2013-06-02 01:53:00,
2013-06-01 21:54:00,72.1,70.9,29.99,SW,217,2.0,4.0,96,1.24,,---,1.30,VWS V14.01,2013-06-02 01:54:00,
2013-06-01 21:55:00,72.1,71.2,29.99,SW,232,2.0,4.0,97,1.26,,---,1.32,VWS V14.01,2013-06-02 01:55:00,
2013-06-01 21:56:00,72.1,71.2,29.99,ENE,73,3.0,4.0,97,1.26,,---,1.32,VWS V14.01,2013-06-02 01:56:00,
2013-06-01 21:58:00,72.2,71.0,30.00,East,86,1.0,3.0,96,1.28,,---,1.34,VWS V14.01,2013-06-02 01:58:00,
2013-06-01 22:00:00,72.2,71.0,30.00,East,84,1.0,3.0,96,1.30,,---,1.36,VWS V14.01,2013-06-02 02:00:00,
2013-06-01 22:02:00,72.2,71.0,30.00,WSW,252,0.0,1.0,96,1.31,,---,1.37,VWS V14.01,2013-06-02 02:02:00,
2013-06-01 22:04:00,72.2,71.3,30.00,ESE,119,1.0,5.0,97,1.33,,---,1.39,VWS V14.01,2013-06-02 02:04:00,
2013-06-01 22:05:00,72.2,71.3,30.00,East,98,1.0,5.0,97,1.34,,---,1.40,VWS V14.01,2013-06-02 02:05:00,
2013-06-01 22:07:00,72.2,71.3,30.00,East,88,1.0,2.0,97,1.36,,---,1.42,VWS V14.01,2013-06-02 02:07:00,
2013-06-01 22:08:00,72.2,71.3,30.00,East,101,2.0,2.0,97,1.36,,---,1.42,VWS V14.01,2013-06-02 02:08:00,
2013-06-01 22:10:00,72.3,71.4,29.99,South,191,2.0,2.0,97,1.37,,---,1.43,VWS V14.01,2013-06-02 02:10:00,
2013-06-01 22:11:00,72.3,71.4,29.99,South,189,0.0,2.0,97,1.37,,---,1.43,VWS V14.01,2013-06-02 02:11:00,
2013-06-01 22:13:00,72.4,71.5,29.99,West,273,0.0,2.0,97,1.36,,---,1.43,VWS V14.01,2013-06-02 02:13:00,
2013-06-01 22:14:00,72.5,71.6,29.99,ENE,60,2.0,2.0,97,1.37,,---,1.44,VWS V14.01,2013-06-02 02:14:00,
2013-06-01 22:15:00,72.5,71.6,29.99,ENE,60,1.0,2.0,97,1.37,,---,1.44,VWS V14.01,2013-06-02 02:15:00,
2013-06-01 22:16:00,72.6,71.7,29.99,ENE,61,2.0,2.0,97,1.37,,---,1.44,VWS V14.01,2013-06-02 02:16:00,
2013-06-01 22:19:00,72.8,71.9,29.99,ENE,63,0.0,2.0,97,1.35,,---,1.44,VWS V14.01,2013-06-02 02:19:00,
2013-06-01 22:20:00,72.9,72.0,29.99,East,87,3.0,3.0,97,1.35,,---,1.44,VWS V14.01,2013-06-02 02:20:00,
2013-06-01 22:21:00,72.9,72.0,29.99,ENE,76,1.0,2.0,97,1.31,,---,1.44,VWS V14.01,2013-06-02 02:21:00,
2013-06-01 22:22:00,73.0,72.1,29.99,ENE,76,1.0,2.0,97,1.31,,---,1.44,VWS V14.01,2013-06-02 02:22:00,
2013-06-01 22:25:00,73.1,72.5,29.99,East,97,0.0,3.0,98,1.31,,---,1.44,VWS V14.01,2013-06-02 02:25:00,
2013-06-01 22:26:00,73.1,72.5,29.99,ESE,104,1.0,3.0,98,1.31,,---,1.44,VWS V14.01,2013-06-02 02:26:00,
2013-06-01 22:27:00,73.2,72.6,29.99,ESE,102,1.0,2.0,98,1.23,,---,1.44,VWS V14.01,2013-06-02 02:27:00,
2013-06-01 22:30:00,73.3,72.7,29.99,East,96,0.0,2.0,98,1.24,,---,1.45,VWS V14.01,2013-06-02 02:30:00,
2013-06-01 22:31:00,73.3,72.7,29.99,ESE,119,2.0,2.0,98,1.24,,---,1.45,VWS V14.01,2013-06-02 02:31:00,
2013-06-01 22:32:00,73.4,72.5,29.99,East,80,2.0,3.0,97,0.99,,---,1.45,VWS V14.01,2013-06-02 02:32:00,
2013-06-01 22:33:00,73.3,72.4,29.99,East,80,0.0,3.0,97,0.99,,---,1.45,VWS V14.01,2013-06-02 02:33:00,
2013-06-01 22:35:00,73.4,72.5,29.99,East,79,1.0,3.0,97,0.99,,---,1.45,VWS V14.01,2013-06-02 02:35:00,
2013-06-01 22:36:00,73.4,72.5,29.99,SE,146,1.0,1.0,97,0.75,,---,1.45,VWS V14.01,2013-06-02 02:36:00,
2013-06-01 22:38:00,73.4,72.5,29.99,ESE,103,0.0,3.0,97,0.75,,---,1.45,VWS V14.01,2013-06-02 02:38:00,
2013-06-01 22:40:00,73.5,72.6,29.99,East,99,1.0,3.0,97,0.75,,---,1.45,VWS V14.01,2013-06-02 02:40:00,
2013-06-01 22:41:00,73.5,72.6,29.99,ESE,107,1.0,3.0,97,0.53,,---,1.45,VWS V14.01,2013-06-02 02:41:00,
2013-06-01 22:43:00,73.5,72.6,29.99,ESE,106,1.0,3.0,97,0.53,,---,1.45,VWS V14.01,2013-06-02 02:43:00,
2013-06-01 22:44:00,73.5,72.6,29.99,East,101,1.0,3.0,97,0.53,,---,1.45,VWS V14.01,2013-06-02 02:44:00,
2013-06-01 22:46:00,73.5,72.6,29.99,ESE,116,1.0,3.0,97,0.53,,---,1.45,VWS V14.01,2013-06-02 02:46:00,
2013-06-01 22:47:00,73.6,72.7,29.99,ESE,116,0.0,1.0,97,0.31,,---,1.45,VWS V14.01,2013-06-02 02:47:00,
2013-06-01 22:48:00,73.6,72.7,30.00,ESE,112,1.0,1.0,97,0.31,,---,1.45,VWS V14.01,2013-06-02 02:48:00,
2013-06-01 22:49:00,73.6,72.7,30.00,ESE,112,1.0,1.0,97,0.31,,---,1.45,VWS V14.01,2013-06-02 02:49:00,
2013-06-01 22:50:00,73.6,72.7,29.99,ESE,112,1.0,1.0,97,0.31,,---,1.45,VWS V14.01,2013-06-02 02:50:00,
2013-06-01 22:51:00,73.7,73.1,29.99,ESE,112,0.0,0.0,98,0.21,,---,1.45,VWS V14.01,2013-06-02 02:51:00,
2013-06-01 22:52:00,73.7,73.1,29.99,ESE,112,0.0,0.0,98,0.21,,---,1.45,VWS V14.01,2013-06-02 02:52:00,
2013-06-01 22:53:00,73.7,73.1,29.99,East,92,5.0,5.0,98,0.21,,---,1.45,VWS V14.01,2013-06-02 02:53:00,
2013-06-01 22:55:00,73.8,73.2,29.99,SE,130,0.0,5.0,98,0.21,,---,1.45,VWS V14.01,2013-06-02 02:55:00,
2013-06-01 22:57:00,73.8,73.2,29.99,ESE,115,0.0,2.0,98,0.13,,---,1.45,VWS V14.01,2013-06-02 02:57:00,
2013-06-01 22:58:00,73.8,73.2,29.99,ESE,113,0.0,2.0,98,0.13,,---,1.45,VWS V14.01,2013-06-02 02:58:00,
2013-06-01 23:00:00,73.8,73.2,29.99,ESE,113,0.0,2.0,98,0.13,,---,1.45,VWS V14.01,2013-06-02 03:00:00,
2013-06-01 23:02:00,73.8,73.2,29.99,East,90,0.0,3.0,98,0.09,,---,1.45,VWS V14.01,2013-06-02 03:02:00,
2013-06-01 23:03:00,73.8,73.2,29.99,East,81,2.0,3.0,98,0.09,,---,1.45,VWS V14.01,2013-06-02 03:03:00,
2013-06-01 23:04:00,73.8,73.2,29.99,East,83,1.0,3.0,98,0.09,,---,1.45,VWS V14.01,2013-06-02 03:04:00,
2013-06-01 23:07:00,73.9,73.3,29.99,East,83,1.0,1.0,98,0.05,,---,1.46,VWS V14.01,2013-06-02 03:07:00,
2013-06-01 23:08:00,73.9,73.3,29.99,East,83,1.0,1.0,98,0.05,,---,1.46,VWS V14.01,2013-06-02 03:08:00,
2013-06-01 23:09:00,73.9,73.3,29.99,SSE,153,0.0,1.0,98,0.05,,---,1.46,VWS V14.01,2013-06-02 03:09:00,
2013-06-01 23:10:00,73.9,73.3,29.99,SSE,159,0.0,2.0,98,0.05,,---,1.46,VWS V14.01,2013-06-02 03:10:00,
2013-06-01 23:13:00,73.9,73.3,29.99,SSE,159,0.0,1.0,98,0.03,,---,1.46,VWS V14.01,2013-06-02 03:13:00,
2013-06-01 23:14:00,73.9,73.3,29.99,SSE,159,0.0,1.0,98,0.03,,---,1.46,VWS V14.01,2013-06-02 03:14:00,
2013-06-01 23:15:00,73.9,73.3,29.99,SSE,159,0.0,1.0,98,0.03,,---,1.46,VWS V14.01,2013-06-02 03:15:00,
2013-06-01 23:18:00,74.0,73.4,29.99,SSE,159,0.0,0.0,98,0.03,,---,1.47,VWS V14.01,2013-06-02 03:18:00,
2013-06-01 23:19:00,74.0,73.4,29.99,SSE,159,0.0,0.0,98,0.03,,---,1.47,VWS V14.01,2013-06-02 03:19:00,
2013-06-01 23:21:00,74.0,73.4,29.99,SSE,159,0.0,0.0,98,0.03,,---,1.47,VWS V14.01,2013-06-02 03:21:00,
2013-06-01 23:22:00,74.0,73.4,29.99,SSE,159,0.0,0.0,98,0.03,,---,1.47,VWS V14.01,2013-06-02 03:22:00,
2013-06-01 23:24:00,74.0,73.4,29.98,SSE,159,0.0,0.0,98,0.03,,---,1.47,VWS V14.01,2013-06-02 03:24:00,
2013-06-01 23:25:00,74.0,73.4,29.98,SSE,159,0.0,0.0,98,0.03,,---,1.47,VWS V14.01,2013-06-02 03:25:00,
2013-06-01 23:26:00,74.0,73.4,29.98,SSE,159,0.0,0.0,98,0.03,,---,1.47,VWS V14.01,2013-06-02 03:26:00,
2013-06-01 23:27:00,74.0,73.4,29.98,SSE,159,0.0,0.0,98,0.03,,---,1.47,VWS V14.01,2013-06-02 03:27:00,
2013-06-01 23:29:00,74.0,73.4,29.98,SSE,159,0.0,0.0,98,0.03,,---,1.47,VWS V14.01,2013-06-02 03:29:00,
2013-06-01 23:30:00,74.0,73.4,29.98,SSE,159,0.0,0.0,98,0.03,,---,1.47,VWS V14.01,2013-06-02 03:30:00,
2013-06-01 23:31:00,74.0,73.4,29.98,SSE,159,0.0,0.0,98,0.03,,---,1.47,VWS V14.01,2013-06-02 03:31:00,
2013-06-01 23:33:00,74.0,73.4,29.98,SSE,159,0.0,0.0,98,0.02,,---,1.47,VWS V14.01,2013-06-02 03:33:00,
2013-06-01 23:35:00,74.0,73.4,29.98,SSE,159,0.0,0.0,98,0.02,,---,1.47,VWS V14.01,2013-06-02 03:35:00,
2013-06-01 23:36:00,74.0,73.4,29.97,SSE,159,0.0,0.0,98,0.02,,---,1.47,VWS V14.01,2013-06-02 03:36:00,
2013-06-01 23:37:00,74.1,73.5,29.97,SSE,159,0.0,0.0,98,0.02,,---,1.47,VWS V14.01,2013-06-02 03:37:00,
2013-06-01 23:38:00,74.1,73.5,29.97,South,185,0.0,2.0,98,0.02,,---,1.47,VWS V14.01,2013-06-02 03:38:00,
2013-06-01 23:39:00,74.0,73.4,29.97,South,185,0.0,2.0,98,0.02,,---,1.47,VWS V14.01,2013-06-02 03:39:00,
2013-06-01 23:41:00,74.1,73.5,29.97,South,185,0.0,2.0,98,0.02,,---,1.47,VWS V14.01,2013-06-02 03:41:00,
2013-06-01 23:42:00,74.0,73.4,29.97,South,185,0.0,1.0,98,0.02,,---,1.47,VWS V14.01,2013-06-02 03:42:00,
2013-06-01 23:43:00,74.0,73.4,29.97,South,185,0.0,1.0,98,0.02,,---,1.47,VWS V14.01,2013-06-02 03:43:00,
2013-06-01 23:44:00,74.0,73.4,29.97,South,185,0.0,1.0,98,0.02,,---,1.47,VWS V14.01,2013-06-02 03:44:00,
2013-06-01 23:47:00,74.0,73.4,29.98,South,185,0.0,1.0,98,0.03,,---,1.48,VWS V14.01,2013-06-02 03:47:00,
2013-06-01 23:48:00,74.0,73.4,29.98,South,185,1.0,1.0,98,0.03,,---,1.48,VWS V14.01,2013-06-02 03:48:00,
2013-06-01 23:49:00,74.0,73.4,29.98,South,185,0.0,1.0,98,0.03,,---,1.48,VWS V14.01,2013-06-02 03:49:00,
2013-06-01 23:50:00,74.0,73.4,29.98,South,185,1.0,1.0,98,0.03,,---,1.48,VWS V14.01,2013-06-02 03:50:00,
2013-06-01 23:52:00,74.0,73.4,29.98,South,185,1.0,1.0,98,0.03,,---,1.48,VWS V14.01,2013-06-02 03:52:00,
2013-06-01 23:54:00,74.0,73.4,29.98,South,185,1.0,2.0,98,0.03,,---,1.48,VWS V14.01,2013-06-02 03:54:00,
2013-06-01 23:55:00,74.0,73.4,29.98,South,185,0.0,2.0,98,0.03,,---,1.48,VWS V14.01,2013-06-02 03:55:00,
2013-06-01 23:56:00,74.0,73.4,29.98,South,185,0.0,2.0,98,0.03,,---,1.48,VWS V14.01,2013-06-02 03:56:00,
2013-06-01 23:58:00,74.0,73.4,29.99,South,185,0.0,1.0,98,0.03,,---,1.48,VWS V14.01,2013-06-02 03:58:00,